Wetterdaten: Donnerstag, 17.12.2015
Datum Zeit Temp. Aussen Temp. o. S. +5cm Feuchte Auss BlattFeu 1 Luftdruck Regen Sonnenschein Regendauer Solar Windben Empfang
17.12.2015 00:00 12,4 C 12,2 C 10,6 C 99 % 15 lf 1023,4 hPa 0,0 l/m 0 min 0 min 5 W/m 16,7 km/h (3 Bft) 92,00 %
17.12.2015 00:02 12,4 C 12,2 C 10,6 C 99 % 15 lf 1023,3 hPa 0,0 l/m 0 min 0 min 5 W/m 6,3 km/h (2 Bft) 9,52 %
17.12.2015 00:05 12,4 C 12,2 C 10,6 C 99 % 15 lf 1023,3 hPa 0,0 l/m 0 min 0 min 5 W/m 16,7 km/h (3 Bft) 66,67 %
17.12.2015 00:06 12,4 C 12,2 C 10,6 C 99 % 15 lf 1023,3 hPa 0,0 l/m 0 min 0 min 5 W/m 18,8 km/h (3 Bft) 88,57 %
17.12.2015 00:08 12,4 C 12,2 C 10,6 C 99 % 15 lf 1023,3 hPa 0,0 l/m 0 min 0 min 5 W/m 12,6 km/h (3 Bft) 91,49 %
17.12.2015 00:10 12,4 C 12,2 C 10,6 C 99 % 15 lf 1023,3 hPa 0,0 l/m 0 min 0 min 5 W/m 16,7 km/h (3 Bft) 91,49 %
17.12.2015 00:12 12,3 C 12,2 C 10,6 C 99 % 15 lf 1023,3 hPa 0,0 l/m 0 min 0 min 5 W/m 18,8 km/h (3 Bft) 91,49 %
17.12.2015 00:14 12,3 C 12,2 C 10,6 C 99 % 15 lf 1023,3 hPa 0,0 l/m 0 min 2 min 5 W/m 16,7 km/h (3 Bft) 93,62 %
17.12.2015 00:16 12,3 C 12,2 C 10,6 C 99 % 15 lf 1023,4 hPa 0,0 l/m 0 min 2 min 5 W/m 14,6 km/h (3 Bft) 93,62 %
17.12.2015 00:18 12,3 C 12,2 C 10,6 C 99 % 15 lf 1023,3 hPa 0,0 l/m 0 min 0 min 5 W/m 20,9 km/h (4 Bft) 93,48 %
17.12.2015 00:20 12,3 C 12,2 C 10,6 C 99 % 15 lf 1023,3 hPa 0,0 l/m 0 min 0 min 5 W/m 10,5 km/h (2 Bft) 93,62 %
17.12.2015 00:22 12,3 C 12,2 C 10,6 C 99 % 15 lf 1023,3 hPa 0,0 l/m 0 min 0 min 5 W/m 12,6 km/h (3 Bft) 95,74 %
17.12.2015 00:24 12,3 C 12,2 C 10,6 C 99 % 15 lf 1023,3 hPa 0,0 l/m 0 min 0 min 5 W/m 12,6 km/h (3 Bft) 93,62 %
17.12.2015 00:26 12,3 C 12,2 C 10,6 C 99 % 15 lf 1023,3 hPa 0,0 l/m 0 min 0 min 5 W/m 12,6 km/h (3 Bft) 97,87 %
17.12.2015 00:28 12,3 C 12,2 C 10,6 C 99 % 15 lf 1023,4 hPa 0,0 l/m 0 min 0 min 5 W/m 14,6 km/h (3 Bft) 97,87 %
17.12.2015 00:30 12,3 C 12,2 C 10,6 C 99 % 15 lf 1023,3 hPa 0,0 l/m 0 min 0 min 5 W/m 12,6 km/h (3 Bft) 95,65 %
17.12.2015 00:32 12,3 C 12,2 C 10,6 C 99 % 15 lf 1023,4 hPa 0,0 l/m 0 min 0 min 5 W/m 12,6 km/h (3 Bft) 97,87 %
17.12.2015 00:34 12,3 C 12,2 C 10,6 C 99 % 15 lf 1023,4 hPa 0,0 l/m 0 min 0 min 5 W/m 12,6 km/h (3 Bft) 93,62 %
17.12.2015 00:36 12,3 C 12,2 C 10,6 C 99 % 15 lf 1023,4 hPa 0,0 l/m 0 min 0 min 5 W/m 12,6 km/h (3 Bft) 97,87 %
17.12.2015 00:38 12,3 C 12,2 C 10,6 C 99 % 15 lf 1023,4 hPa 0,0 l/m 0 min 0 min 5 W/m 18,8 km/h (3 Bft) 97,87 %
17.12.2015 00:40 12,3 C 12,2 C 10,6 C 99 % 15 lf 1023,4 hPa 0,0 l/m 0 min 2 min 5 W/m 20,9 km/h (4 Bft) 97,87 %
17.12.2015 00:42 12,3 C 12,2 C 10,6 C 99 % 15 lf 1023,3 hPa 0,0 l/m 0 min 0 min 5 W/m 20,9 km/h (4 Bft) 97,83 %
17.12.2015 00:44 12,3 C 12,2 C 10,6 C 99 % 15 lf 1023,3 hPa 0,0 l/m 0 min 2 min 5 W/m 25,1 km/h (4 Bft) 97,87 %
17.12.2015 00:46 12,4 C 12,2 C 10,6 C 99 % 15 lf 1023,2 hPa 0,0 l/m 0 min 0 min 5 W/m 18,8 km/h (3 Bft) 97,87 %
17.12.2015 00:48 12,4 C 12,2 C 10,6 C 99 % 15 lf 1023,2 hPa 0,0 l/m 0 min 0 min 5 W/m 25,1 km/h (4 Bft) 100,00 %
17.12.2015 00:50 12,4 C 12,2 C 10,6 C 99 % 15 lf 1023,2 hPa 0,0 l/m 0 min 0 min 5 W/m 20,9 km/h (4 Bft) 97,87 %
17.12.2015 00:52 12,4 C 12,2 C 10,6 C 99 % 15 lf 1023,2 hPa 0,0 l/m 0 min 2 min 5 W/m 18,8 km/h (3 Bft) 93,62 %
17.12.2015 00:54 12,4 C 12,2 C 10,6 C 99 % 15 lf 1023,2 hPa 0,0 l/m 0 min 0 min 5 W/m 14,6 km/h (3 Bft) 100,00 %
17.12.2015 00:56 12,4 C 12,2 C 10,6 C 99 % 15 lf 1023,2 hPa 0,0 l/m 0 min 0 min 5 W/m 18,8 km/h (3 Bft) 100,00 %
17.12.2015 00:58 12,4 C 12,2 C 10,6 C 99 % 15 lf 1023,2 hPa 0,0 l/m 0 min 0 min 5 W/m 16,7 km/h (3 Bft) 100,00 %
17.12.2015 01:00 12,4 C 12,2 C 10,6 C 99 % 15 lf 1023,0 hPa 0,0 l/m 0 min 2 min 5 W/m 18,8 km/h (3 Bft) 98,00 %
17.12.2015 01:02 12,4 C 12,2 C 10,6 C 99 % 15 lf 1023,2 hPa 0,0 l/m 0 min 0 min 5 W/m 18,8 km/h (3 Bft) 100,00 %
17.12.2015 01:04 12,4 C 12,2 C 10,6 C 99 % 15 lf 1023,2 hPa 0,0 l/m 0 min 0 min 5 W/m 16,7 km/h (3 Bft) 97,37 %
17.12.2015 01:06 12,4 C 12,2 C 10,6 C 99 % 15 lf 1023,2 hPa 0,0 l/m 0 min 0 min 5 W/m 16,7 km/h (3 Bft) 100,00 %
17.12.2015 01:08 12,4 C 12,2 C 10,6 C 99 % 15 lf 1023,3 hPa 0,0 l/m 0 min 0 min 5 W/m 18,8 km/h (3 Bft) 100,00 %
17.12.2015 01:10 12,4 C 12,2 C 10,6 C 99 % 15 lf 1023,2 hPa 0,0 l/m 0 min 0 min 5 W/m 16,7 km/h (3 Bft) 100,00 %
17.12.2015 01:12 12,4 C 12,2 C 10,6 C 99 % 15 lf 1023,2 hPa 0,0 l/m 0 min 0 min 5 W/m 16,7 km/h (3 Bft) 100,00 %
17.12.2015 01:14 12,4 C 12,2 C 10,6 C 99 % 15 lf 1023,3 hPa 0,0 l/m 0 min 0 min 5 W/m 18,8 km/h (3 Bft) 95,74 %
17.12.2015 01:16 12,4 C 12,2 C 10,6 C 99 % 15 lf 1023,2 hPa 0,0 l/m 0 min 0 min 5 W/m 16,7 km/h (3 Bft) 100,00 %
17.12.2015 01:18 12,4 C 12,2 C 10,6 C 99 % 15 lf 1023,3 hPa 0,0 l/m 0 min 0 min 5 W/m 16,7 km/h (3 Bft) 100,00 %
17.12.2015 01:20 12,4 C 12,2 C 10,6 C 99 % 15 lf 1023,3 hPa 0,0 l/m 0 min 0 min 5 W/m 12,6 km/h (3 Bft) 97,87 %
17.12.2015 01:22 12,4 C 12,2 C 10,6 C 99 % 15 lf 1023,3 hPa 0,0 l/m 0 min 0 min 5 W/m 14,6 km/h (3 Bft) 100,00 %
17.12.2015 01:24 12,4 C 12,2 C 10,6 C 99 % 15 lf 1023,2 hPa 0,0 l/m 0 min 0 min 5 W/m 14,6 km/h (3 Bft) 95,74 %
17.12.2015 01:26 12,4 C 12,2 C 10,6 C 99 % 15 lf 1023,1 hPa 0,0 l/m 0 min 0 min 5 W/m 12,6 km/h (3 Bft) 97,87 %
17.12.2015 01:28 12,3 C 12,2 C 10,6 C 99 % 15 lf 1023,1 hPa 0,0 l/m 0 min 0 min 5 W/m 14,6 km/h (3 Bft) 100,00 %
17.12.2015 01:30 12,4 C 12,2 C 10,6 C 99 % 15 lf 1023,2 hPa 0,0 l/m 0 min 0 min 5 W/m 20,9 km/h (4 Bft) 97,87 %
17.12.2015 01:32 12,3 C 12,2 C 10,6 C 99 % 15 lf 1023,2 hPa 0,0 l/m 0 min 0 min 5 W/m 20,9 km/h (4 Bft) 95,74 %
17.12.2015 01:34 12,3 C 12,2 C 10,6 C 99 % 15 lf 1023,2 hPa 0,0 l/m 0 min 0 min 5 W/m 18,8 km/h (3 Bft) 97,87 %
17.12.2015 01:36 12,3 C 12,2 C 10,6 C 99 % 15 lf 1023,1 hPa 0,0 l/m 0 min 0 min 5 W/m 20,9 km/h (4 Bft) 97,87 %
17.12.2015 01:38 12,3 C 12,2 C 10,6 C 99 % 15 lf 1023,0 hPa 0,0 l/m 0 min 0 min 5 W/m 14,6 km/h (3 Bft) 95,74 %
17.12.2015 01:40 12,3 C 12,2 C 10,6 C 99 % 15 lf 1023,0 hPa 0,0 l/m 0 min 0 min 5 W/m 23,0 km/h (4 Bft) 93,48 %
17.12.2015 01:42 12,3 C 12,2 C 10,6 C 99 % 15 lf 1023,0 hPa 0,0 l/m 0 min 2 min 5 W/m 25,1 km/h (4 Bft) 89,36 %
17.12.2015 01:44 12,3 C 12,2 C 10,6 C 99 % 15 lf 1023,0 hPa 0,0 l/m 0 min 2 min 5 W/m 23,0 km/h (4 Bft) 95,74 %
17.12.2015 01:46 12,3 C 12,2 C 10,6 C 99 % 15 lf 1022,9 hPa 0,0 l/m 0 min 0 min 5 W/m 25,1 km/h (4 Bft) 95,74 %
17.12.2015 01:48 12,3 C 12,2 C 10,6 C 99 % 15 lf 1022,9 hPa 0,0 l/m 0 min 0 min 5 W/m 20,9 km/h (4 Bft) 95,74 %
17.12.2015 01:50 12,4 C 12,2 C 10,6 C 99 % 15 lf 1022,9 hPa 0,0 l/m 0 min 0 min 5 W/m 18,8 km/h (3 Bft) 93,62 %
17.12.2015 01:52 12,4 C 12,2 C 10,6 C 99 % 15 lf 1022,9 hPa 0,0 l/m 0 min 0 min 5 W/m 12,6 km/h (3 Bft) 95,65 %
17.12.2015 01:54 12,4 C 12,2 C 10,6 C 99 % 15 lf 1022,9 hPa 0,0 l/m 0 min 0 min 5 W/m 23,0 km/h (4 Bft) 95,74 %
17.12.2015 01:56 12,4 C 12,2 C 10,6 C 99 % 15 lf 1022,9 hPa 0,0 l/m 0 min 0 min 5 W/m 10,5 km/h (2 Bft) 95,74 %
17.12.2015 01:58 12,4 C 12,2 C 10,6 C 99 % 15 lf 1023,0 hPa 0,0 l/m 0 min 0 min 5 W/m 16,7 km/h (3 Bft) 89,36 %
17.12.2015 02:00 12,4 C 12,2 C 10,6 C 98 % 15 lf 1023,0 hPa 0,0 l/m 0 min 0 min 5 W/m 18,8 km/h (3 Bft) 94,00 %
17.12.2015 02:02 12,4 C 12,2 C 10,6 C 98 % 15 lf 1023,0 hPa 0,0 l/m 0 min 0 min 5 W/m 16,7 km/h (3 Bft) 90,24 %
17.12.2015 02:04 12,4 C 12,2 C 10,6 C 98 % 15 lf 1023,0 hPa 0,0 l/m 0 min 0 min 5 W/m 20,9 km/h (4 Bft) 95,92 %
17.12.2015 02:06 12,4 C 12,2 C 10,6 C 98 % 14 lf 1023,0 hPa 0,0 l/m 0 min 2 min 5 W/m 23,0 km/h (4 Bft) 95,74 %
17.12.2015 02:08 12,4 C 12,2 C 10,6 C 98 % 13 lf 1022,9 hPa 0,0 l/m 0 min 2 min 5 W/m 20,9 km/h (4 Bft) 97,87 %
17.12.2015 02:10 12,4 C 12,2 C 10,6 C 98 % 13 lf 1023,0 hPa 0,0 l/m 0 min 2 min 5 W/m 16,7 km/h (3 Bft) 97,87 %
17.12.2015 02:12 12,4 C 12,2 C 10,6 C 98 % 12 lf 1022,9 hPa 0,0 l/m 0 min 0 min 5 W/m 14,6 km/h (3 Bft) 97,87 %
17.12.2015 02:14 12,4 C 12,2 C 10,6 C 98 % 12 lf 1022,9 hPa 0,0 l/m 0 min 0 min 5 W/m 16,7 km/h (3 Bft) 93,62 %
17.12.2015 02:16 12,4 C 12,2 C 10,6 C 98 % 11 lf 1022,9 hPa 0,0 l/m 0 min 0 min 5 W/m 18,8 km/h (3 Bft) 93,48 %
17.12.2015 02:18 12,4 C 12,2 C 10,6 C 98 % 10 lf 1022,9 hPa 0,0 l/m 0 min 2 min 5 W/m 16,7 km/h (3 Bft) 95,74 %
17.12.2015 02:20 12,4 C 12,2 C 10,6 C 98 % 9 lf 1022,9 hPa 0,0 l/m 0 min 2 min 5 W/m 23,0 km/h (4 Bft) 97,87 %
17.12.2015 02:22 12,4 C 12,2 C 10,6 C 99 % 8 lf 1022,9 hPa 0,0 l/m 0 min 0 min 5 W/m 18,8 km/h (3 Bft) 95,74 %
17.12.2015 02:24 12,4 C 12,2 C 10,6 C 99 % 6 lf 1023,0 hPa 0,0 l/m 0 min 0 min 5 W/m 18,8 km/h (3 Bft) 93,62 %
17.12.2015 02:26 12,4 C 12,2 C 10,6 C 98 % 4 lf 1023,0 hPa 0,0 l/m 0 min 0 min 5 W/m 14,6 km/h (3 Bft) 97,87 %
17.12.2015 02:28 12,4 C 12,2 C 10,6 C 98 % 4 lf 1022,9 hPa 0,0 l/m 0 min 0 min 5 W/m 16,7 km/h (3 Bft) 97,83 %
17.12.2015 02:30 12,4 C 12,2 C 10,6 C 98 % 3 lf 1022,9 hPa 0,0 l/m 0 min 2 min 5 W/m 18,8 km/h (3 Bft) 95,74 %
17.12.2015 02:32 12,4 C 12,2 C 10,6 C 98 % 3 lf 1022,9 hPa 0,0 l/m 0 min 0 min 5 W/m 16,7 km/h (3 Bft) 95,74 %
17.12.2015 02:34 12,4 C 12,2 C 10,6 C 98 % 2 lf 1022,9 hPa 0,0 l/m 0 min 2 min 5 W/m 14,6 km/h (3 Bft) 93,62 %
17.12.2015 02:36 12,4 C 12,2 C 10,6 C 98 % 2 lf 1023,0 hPa 0,0 l/m 0 min 0 min 5 W/m 16,7 km/h (3 Bft) 97,87 %
17.12.2015 02:38 12,4 C 12,2 C 10,6 C 98 % 1 lf 1023,0 hPa 0,0 l/m 0 min 0 min 5 W/m 20,9 km/h (4 Bft) 97,87 %
17.12.2015 02:40 12,4 C 12,2 C 10,6 C 98 % 1 lf 1023,0 hPa 0,0 l/m 0 min 0 min 5 W/m 16,7 km/h (3 Bft) 95,65 %
17.12.2015 02:42 12,4 C 12,2 C 10,6 C 98 % 1 lf 1023,0 hPa 0,0 l/m 0 min 0 min 5 W/m 23,0 km/h (4 Bft) 95,74 %
17.12.2015 02:44 12,4 C 12,2 C 10,6 C 98 % 1 lf 1023,0 hPa 0,0 l/m 0 min 0 min 5 W/m 16,7 km/h (3 Bft) 97,87 %
17.12.2015 02:46 12,4 C 12,2 C 10,6 C 98 % 0 lf 1023,0 hPa 0,0 l/m 0 min 0 min 5 W/m 18,8 km/h (3 Bft) 97,87 %
17.12.2015 02:48 12,4 C 12,2 C 10,6 C 98 % 0 lf 1023,0 hPa 0,0 l/m 0 min 0 min 5 W/m 14,6 km/h (3 Bft) 97,87 %
17.12.2015 02:50 12,5 C 12,2 C 10,6 C 98 % 0 lf 1022,9 hPa 0,0 l/m 0 min 0 min 5 W/m 16,7 km/h (3 Bft) 97,83 %
17.12.2015 02:52 12,5 C 12,2 C 10,6 C 98 % 0 lf 1023,0 hPa 0,0 l/m 0 min 0 min 5 W/m 12,6 km/h (3 Bft) 95,74 %
17.12.2015 02:54 12,4 C 12,2 C 10,6 C 98 % 0 lf 1023,0 hPa 0,0 l/m 0 min 0 min 5 W/m 16,7 km/h (3 Bft) 97,87 %
17.12.2015 02:56 12,5 C 12,2 C 10,6 C 98 % 0 lf 1023,0 hPa 0,0 l/m 0 min 0 min 5 W/m 14,6 km/h (3 Bft) 97,87 %
17.12.2015 02:58 12,4 C 12,2 C 10,6 C 98 % 0 lf 1023,0 hPa 0,0 l/m 0 min 0 min 5 W/m 14,6 km/h (3 Bft) 97,87 %
17.12.2015 03:00 12,5 C 12,2 C 10,6 C 98 % 0 lf 1023,0 hPa 0,0 l/m 0 min 0 min 5 W/m 20,9 km/h (4 Bft) 96,00 %
17.12.2015 03:02 12,5 C 12,2 C 10,6 C 98 % 0 lf 1023,0 hPa 0,0 l/m 0 min 0 min 5 W/m 16,7 km/h (3 Bft) 92,50 %
17.12.2015 03:04 12,5 C 12,2 C 10,6 C 98 % 0 lf 1023,0 hPa 0,0 l/m 0 min 0 min 5 W/m 10,5 km/h (2 Bft) 98,00 %
17.12.2015 03:06 12,5 C 12,2 C 10,6 C 98 % 0 lf 1023,1 hPa 0,0 l/m 0 min 0 min 5 W/m 10,5 km/h (2 Bft) 95,74 %
17.12.2015 03:08 12,5 C 12,2 C 10,6 C 98 % 0 lf 1023,0 hPa 0,0 l/m 0 min 0 min 5 W/m 10,5 km/h (2 Bft) 97,87 %
17.12.2015 03:10 12,5 C 12,2 C 10,6 C 98 % 0 lf 1023,0 hPa 0,0 l/m 0 min 0 min 5 W/m 16,7 km/h (3 Bft) 97,87 %
17.12.2015 03:12 12,5 C 12,2 C 10,6 C 98 % 0 lf 1023,0 hPa 0,0 l/m 0 min 0 min 5 W/m 14,6 km/h (3 Bft) 93,62 %
17.12.2015 03:14 12,5 C 12,2 C 10,6 C 98 % 0 lf 1023,0 hPa 0,0 l/m 0 min 0 min 5 W/m 12,6 km/h (3 Bft) 97,83 %
17.12.2015 03:16 12,5 C 12,2 C 10,6 C 98 % 0 lf 1023,0 hPa 0,0 l/m 0 min 0 min 5 W/m 14,6 km/h (3 Bft) 100,00 %
17.12.2015 03:18 12,5 C 12,2 C 10,6 C 98 % 0 lf 1023,0 hPa 0,0 l/m 0 min 0 min 5 W/m 16,7 km/h (3 Bft) 95,74 %
17.12.2015 03:20 12,5 C 12,2 C 10,6 C 97 % 0 lf 1023,0 hPa 0,0 l/m 0 min 0 min 5 W/m 16,7 km/h (3 Bft) 100,00 %
17.12.2015 03:22 12,5 C 12,2 C 10,6 C 97 % 0 lf 1023,0 hPa 0,0 l/m 0 min 0 min 5 W/m 16,7 km/h (3 Bft) 98,21 %
17.12.2015 03:24 12,5 C 12,2 C 10,6 C 97 % 0 lf 1023,0 hPa 0,0 l/m 0 min 0 min 5 W/m 18,8 km/h (3 Bft) 91,49 %
17.12.2015 03:26 12,5 C 12,2 C 10,6 C 97 % 0 lf 1023,0 hPa 0,0 l/m 0 min 0 min 5 W/m 14,6 km/h (3 Bft) 95,74 %
17.12.2015 03:28 12,5 C 12,2 C 10,6 C 97 % 0 lf 1023,0 hPa 0,0 l/m 0 min 0 min 5 W/m 10,5 km/h (2 Bft) 93,62 %
17.12.2015 03:30 12,5 C 12,2 C 10,6 C 97 % 0 lf 1023,0 hPa 0,0 l/m 0 min 0 min 5 W/m 18,8 km/h (3 Bft) 95,74 %
17.12.2015 03:32 12,5 C 12,2 C 10,6 C 97 % 0 lf 1023,0 hPa 0,0 l/m 0 min 0 min 5 W/m 12,6 km/h (3 Bft) 93,62 %
17.12.2015 03:34 12,5 C 12,2 C 10,6 C 97 % 0 lf 1022,8 hPa 0,0 l/m 0 min 0 min 5 W/m 14,6 km/h (3 Bft) 95,65 %
17.12.2015 03:36 12,5 C 12,2 C 10,6 C 97 % 0 lf 1022,8 hPa 0,0 l/m 0 min 0 min 5 W/m 18,8 km/h (3 Bft) 93,62 %
17.12.2015 03:38 12,5 C 12,2 C 10,6 C 97 % 0 lf 1022,8 hPa 0,0 l/m 0 min 0 min 5 W/m 14,6 km/h (3 Bft) 95,74 %
17.12.2015 03:40 12,5 C 12,2 C 11,1 C 97 % 0 lf 1022,8 hPa 0,0 l/m 0 min 0 min 5 W/m 16,7 km/h (3 Bft) 95,74 %
17.12.2015 03:42 12,5 C 12,2 C 11,1 C 97 % 0 lf 1022,8 hPa 0,0 l/m 0 min 0 min 5 W/m 14,6 km/h (3 Bft) 95,74 %
17.12.2015 03:44 12,5 C 12,2 C 11,1 C 97 % 0 lf 1022,7 hPa 0,0 l/m 0 min 0 min 5 W/m 14,6 km/h (3 Bft) 93,62 %
17.12.2015 03:46 12,6 C 12,2 C 11,1 C 97 % 0 lf 1022,7 hPa 0,0 l/m 0 min 0 min 5 W/m 16,7 km/h (3 Bft) 95,74 %
17.12.2015 03:48 12,6 C 12,2 C 11,1 C 97 % 0 lf 1022,7 hPa 0,0 l/m 0 min 0 min 5 W/m 14,6 km/h (3 Bft) 95,65 %
17.12.2015 03:50 12,6 C 12,2 C 11,1 C 97 % 0 lf 1022,7 hPa 0,0 l/m 0 min 0 min 5 W/m 18,8 km/h (3 Bft) 95,74 %
17.12.2015 03:52 12,6 C 12,2 C 11,1 C 97 % 0 lf 1022,6 hPa 0,0 l/m 0 min 0 min 5 W/m 18,8 km/h (3 Bft) 93,62 %
17.12.2015 03:54 12,6 C 12,2 C 11,1 C 97 % 0 lf 1022,7 hPa 0,0 l/m 0 min 0 min 5 W/m 18,8 km/h (3 Bft) 91,49 %
17.12.2015 03:56 12,6 C 12,2 C 11,1 C 97 % 0 lf 1022,7 hPa 0,0 l/m 0 min 0 min 5 W/m 16,7 km/h (3 Bft) 97,87 %
17.12.2015 03:58 12,6 C 12,2 C 11,1 C 97 % 0 lf 1022,7 hPa 0,0 l/m 0 min 0 min 5 W/m 16,7 km/h (3 Bft) 93,48 %
17.12.2015 04:00 12,6 C 12,2 C 11,1 C 97 % 0 lf 1022,7 hPa 0,0 l/m 0 min 0 min 5 W/m 10,5 km/h (2 Bft) 95,74 %
17.12.2015 04:02 12,6 C 12,2 C 11,1 C 97 % 0 lf 1022,7 hPa 0,0 l/m 0 min 0 min 5 W/m 16,7 km/h (3 Bft) 100,00 %
17.12.2015 04:04 12,6 C 12,2 C 11,1 C 97 % 0 lf 1022,7 hPa 0,0 l/m 0 min 0 min 5 W/m 18,8 km/h (3 Bft) 98,00 %
17.12.2015 04:06 12,6 C 12,2 C 11,1 C 97 % 0 lf 1022,9 hPa 0,0 l/m 0 min 0 min 5 W/m 14,6 km/h (3 Bft) 93,62 %
17.12.2015 04:08 12,6 C 12,2 C 11,1 C 97 % 0 lf 1022,9 hPa 0,0 l/m 0 min 0 min 5 W/m 12,6 km/h (3 Bft) 95,74 %
17.12.2015 04:10 12,6 C 12,2 C 11,1 C 97 % 0 lf 1022,8 hPa 0,0 l/m 0 min 0 min 5 W/m 16,7 km/h (3 Bft) 95,65 %
17.12.2015 04:12 12,7 C 12,2 C 11,1 C 97 % 0 lf 1022,8 hPa 0,0 l/m 0 min 0 min 5 W/m 23,0 km/h (4 Bft) 100,00 %
17.12.2015 04:14 12,7 C 12,2 C 11,1 C 96 % 0 lf 1022,8 hPa 0,0 l/m 0 min 0 min 5 W/m 18,8 km/h (3 Bft) 97,87 %
17.12.2015 04:16 12,7 C 12,2 C 11,1 C 96 % 0 lf 1022,9 hPa 0,0 l/m 0 min 0 min 5 W/m 20,9 km/h (4 Bft) 97,87 %
17.12.2015 04:18 12,7 C 12,2 C 11,1 C 96 % 0 lf 1022,8 hPa 0,0 l/m 0 min 0 min 5 W/m 14,6 km/h (3 Bft) 97,87 %
17.12.2015 04:20 12,7 C 12,2 C 11,1 C 96 % 0 lf 1022,8 hPa 0,0 l/m 0 min 0 min 5 W/m 14,6 km/h (3 Bft) 95,74 %
17.12.2015 04:22 12,7 C 12,2 C 11,1 C 96 % 0 lf 1022,7 hPa 0,0 l/m 0 min 0 min 5 W/m 12,6 km/h (3 Bft) 97,83 %
17.12.2015 04:24 12,7 C 12,2 C 11,1 C 96 % 0 lf 1022,7 hPa 0,0 l/m 0 min 0 min 5 W/m 23,0 km/h (4 Bft) 95,74 %
17.12.2015 04:26 12,7 C 12,2 C 11,1 C 96 % 0 lf 1022,8 hPa 0,0 l/m 0 min 0 min 5 W/m 12,6 km/h (3 Bft) 93,62 %
17.12.2015 04:28 12,7 C 12,2 C 11,1 C 96 % 0 lf 1022,7 hPa 0,0 l/m 0 min 0 min 5 W/m 18,8 km/h (3 Bft) 97,87 %
17.12.2015 04:30 12,7 C 12,8 C 11,1 C 96 % 0 lf 1022,7 hPa 0,0 l/m 0 min 0 min 5 W/m 12,6 km/h (3 Bft) 97,87 %
17.12.2015 04:32 12,7 C 12,8 C 11,1 C 96 % 0 lf 1022,7 hPa 0,0 l/m 0 min 0 min 5 W/m 20,9 km/h (4 Bft) 95,74 %
17.12.2015 04:34 12,7 C 12,8 C 11,1 C 96 % 0 lf 1022,6 hPa 0,0 l/m 0 min 0 min 5 W/m 14,6 km/h (3 Bft) 95,65 %
17.12.2015 04:36 12,7 C 12,8 C 11,1 C 96 % 0 lf 1022,6 hPa 0,0 l/m 0 min 0 min 5 W/m 16,7 km/h (3 Bft) 97,87 %
17.12.2015 04:38 12,7 C 12,8 C 11,1 C 96 % 0 lf 1022,6 hPa 0,0 l/m 0 min 0 min 5 W/m 16,7 km/h (3 Bft) 95,74 %
17.12.2015 04:40 12,8 C 12,8 C 11,1 C 96 % 0 lf 1022,6 hPa 0,0 l/m 0 min 0 min 5 W/m 14,6 km/h (3 Bft) 97,87 %
17.12.2015 04:42 12,8 C 12,8 C 11,1 C 96 % 0 lf 1022,6 hPa 0,0 l/m 0 min 0 min 5 W/m 18,8 km/h (3 Bft) 95,74 %
17.12.2015 04:44 12,8 C 12,8 C 11,1 C 96 % 0 lf 1022,6 hPa 0,0 l/m 0 min 0 min 5 W/m 23,0 km/h (4 Bft) 97,83 %
17.12.2015 04:46 12,8 C 12,8 C 11,1 C 96 % 0 lf 1022,5 hPa 0,0 l/m 0 min 0 min 5 W/m 18,8 km/h (3 Bft) 95,74 %
17.12.2015 04:48 12,8 C 12,8 C 11,1 C 96 % 0 lf 1022,5 hPa 0,0 l/m 0 min 0 min 5 W/m 18,8 km/h (3 Bft) 93,62 %
17.12.2015 04:50 12,8 C 12,8 C 11,1 C 96 % 0 lf 1022,5 hPa 0,0 l/m 0 min 0 min 5 W/m 18,8 km/h (3 Bft) 95,74 %
17.12.2015 04:52 12,8 C 12,8 C 11,1 C 96 % 0 lf 1022,5 hPa 0,0 l/m 0 min 0 min 5 W/m 14,6 km/h (3 Bft) 95,74 %
17.12.2015 04:54 12,8 C 12,8 C 11,1 C 96 % 0 lf 1022,6 hPa 0,0 l/m 0 min 0 min 5 W/m 16,7 km/h (3 Bft) 97,87 %
17.12.2015 04:56 12,8 C 12,8 C 11,1 C 96 % 0 lf 1022,6 hPa 0,0 l/m 0 min 0 min 5 W/m 20,9 km/h (4 Bft) 97,83 %
17.12.2015 04:58 12,8 C 13,3 C 11,1 C 95 % 0 lf 1022,5 hPa 0,0 l/m 0 min 0 min 5 W/m 16,7 km/h (3 Bft) 97,87 %
17.12.2015 05:00 12,8 C 12,8 C 11,1 C 95 % 0 lf 1022,4 hPa 0,0 l/m 0 min 0 min 5 W/m 12,6 km/h (3 Bft) 97,92 %
17.12.2015 05:02 12,8 C 12,8 C 11,1 C 95 % 0 lf 1022,4 hPa 0,0 l/m 0 min 0 min 5 W/m 12,6 km/h (3 Bft) 89,36 %
17.12.2015 05:04 12,8 C 12,8 C 11,1 C 95 % 0 lf 1022,4 hPa 0,0 l/m 0 min 0 min 5 W/m 12,6 km/h (3 Bft) 97,67 %
17.12.2015 05:06 12,8 C 12,8 C 11,1 C 95 % 0 lf 1022,4 hPa 0,0 l/m 0 min 0 min 5 W/m 16,7 km/h (3 Bft) 93,62 %
17.12.2015 05:08 12,8 C 12,8 C 11,1 C 95 % 0 lf 1022,4 hPa 0,0 l/m 0 min 0 min 5 W/m 23,0 km/h (4 Bft) 97,87 %
17.12.2015 05:10 12,8 C 13,3 C 11,1 C 95 % 0 lf 1022,4 hPa 0,0 l/m 0 min 0 min 5 W/m 18,8 km/h (3 Bft) 93,48 %
17.12.2015 05:12 12,8 C 12,8 C 11,1 C 95 % 0 lf 1022,4 hPa 0,0 l/m 0 min 0 min 5 W/m 12,6 km/h (3 Bft) 93,62 %
17.12.2015 05:14 12,8 C 12,8 C 11,1 C 95 % 0 lf 1022,4 hPa 0,0 l/m 0 min 0 min 5 W/m 18,8 km/h (3 Bft) 97,87 %
17.12.2015 05:16 12,8 C 12,8 C 11,1 C 95 % 0 lf 1022,4 hPa 0,0 l/m 0 min 0 min 5 W/m 16,7 km/h (3 Bft) 95,74 %
17.12.2015 05:18 12,8 C 12,8 C 11,1 C 95 % 0 lf 1022,4 hPa 0,0 l/m 0 min 0 min 5 W/m 23,0 km/h (4 Bft) 89,36 %
17.12.2015 05:20 12,8 C 12,8 C 11,1 C 95 % 0 lf 1022,4 hPa 0,0 l/m 0 min 0 min 5 W/m 10,5 km/h (2 Bft) 86,96 %
17.12.2015 05:22 12,8 C 12,8 C 11,1 C 95 % 0 lf 1022,4 hPa 0,0 l/m 0 min 0 min 5 W/m 14,6 km/h (3 Bft) 93,62 %
17.12.2015 05:24 12,8 C 12,8 C 11,1 C 95 % 0 lf 1022,4 hPa 0,0 l/m 0 min 0 min 5 W/m 14,6 km/h (3 Bft) 91,49 %
17.12.2015 05:26 12,8 C 12,8 C 11,1 C 95 % 0 lf 1022,4 hPa 0,0 l/m 0 min 0 min 5 W/m 16,7 km/h (3 Bft) 93,62 %
17.12.2015 05:28 12,8 C 12,8 C 11,1 C 95 % 0 lf 1022,4 hPa 0,0 l/m 0 min 0 min 5 W/m 12,6 km/h (3 Bft) 95,74 %
17.12.2015 05:30 12,8 C 12,8 C 11,1 C 95 % 0 lf 1022,5 hPa 0,0 l/m 0 min 0 min 5 W/m 16,7 km/h (3 Bft) 95,74 %
17.12.2015 05:32 12,8 C 12,8 C 11,1 C 95 % 0 lf 1022,5 hPa 0,0 l/m 0 min 0 min 5 W/m 8,4 km/h (2 Bft) 91,30 %
17.12.2015 05:34 12,8 C 12,8 C 11,1 C 95 % 0 lf 1022,4 hPa 0,0 l/m 0 min 0 min 5 W/m 12,6 km/h (3 Bft) 91,49 %
17.12.2015 05:36 12,8 C 12,8 C 11,1 C 95 % 0 lf 1022,4 hPa 0,0 l/m 0 min 0 min 5 W/m 14,6 km/h (3 Bft) 90,48 %
17.12.2015 05:38 12,8 C 12,8 C 11,1 C 95 % 0 lf 1022,3 hPa 0,0 l/m 0 min 0 min 5 W/m 12,6 km/h (3 Bft) 95,74 %
17.12.2015 05:40 12,8 C 12,8 C 11,1 C 95 % 0 lf 1022,4 hPa 0,0 l/m 0 min 0 min 5 W/m 16,7 km/h (3 Bft) 91,49 %
17.12.2015 05:42 12,8 C 12,8 C 11,1 C 95 % 0 lf 1022,3 hPa 0,0 l/m 0 min 0 min 5 W/m 16,7 km/h (3 Bft) 91,49 %
17.12.2015 05:44 12,8 C 12,8 C 11,1 C 95 % 0 lf 1022,2 hPa 0,0 l/m 0 min 0 min 5 W/m 18,8 km/h (3 Bft) 95,74 %
17.12.2015 05:46 12,8 C 13,3 C 11,1 C 95 % 0 lf 1022,2 hPa 0,0 l/m 0 min 0 min 5 W/m 16,7 km/h (3 Bft) 95,65 %
17.12.2015 05:48 12,8 C 13,3 C 11,1 C 95 % 0 lf 1022,2 hPa 0,0 l/m 0 min 0 min 5 W/m 14,6 km/h (3 Bft) 97,87 %
17.12.2015 05:50 12,8 C 13,3 C 11,1 C 95 % 0 lf 1022,2 hPa 0,0 l/m 0 min 0 min 5 W/m 14,6 km/h (3 Bft) 93,62 %
17.12.2015 05:52 12,8 C 13,3 C 11,1 C 95 % 0 lf 1022,2 hPa 0,0 l/m 0 min 0 min 5 W/m 16,7 km/h (3 Bft) 95,74 %
17.12.2015 05:54 12,9 C 13,3 C 11,1 C 95 % 0 lf 1022,2 hPa 0,0 l/m 0 min 0 min 5 W/m 10,5 km/h (2 Bft) 97,87 %
17.12.2015 05:56 12,9 C 13,3 C 11,1 C 95 % 0 lf 1022,2 hPa 0,0 l/m 0 min 0 min 5 W/m 14,6 km/h (3 Bft) 97,87 %
17.12.2015 05:58 12,9 C 13,3 C 11,1 C 95 % 0 lf 1022,2 hPa 0,0 l/m 0 min 0 min 5 W/m 14,6 km/h (3 Bft) 95,65 %
17.12.2015 06:00 12,9 C 12,8 C 11,1 C 95 % 0 lf 1022,2 hPa 0,0 l/m 0 min 0 min 5 W/m 14,6 km/h (3 Bft) 97,67 %
17.12.2015 06:02 12,9 C 12,8 C 11,1 C 95 % 0 lf 1022,3 hPa 0,0 l/m 0 min 0 min 5 W/m 20,9 km/h (4 Bft) 94,00 %
17.12.2015 06:06 12,9 C 12,8 C 11,1 C 95 % 0 lf 1022,2 hPa 0,0 l/m 0 min 0 min 5 W/m 14,6 km/h (3 Bft) 96,88 %
17.12.2015 06:08 12,9 C 12,8 C 11,1 C 95 % 0 lf 1022,2 hPa 0,0 l/m 0 min 0 min 5 W/m 16,7 km/h (3 Bft) 95,65 %
17.12.2015 06:10 12,9 C 12,8 C 11,1 C 95 % 0 lf 1022,2 hPa 0,0 l/m 0 min 0 min 5 W/m 12,6 km/h (3 Bft) 97,87 %
17.12.2015 06:12 12,9 C 12,8 C 11,1 C 95 % 0 lf 1022,3 hPa 0,0 l/m 0 min 0 min 5 W/m 14,6 km/h (3 Bft) 100,00 %
17.12.2015 06:14 12,9 C 12,8 C 11,1 C 95 % 0 lf 1022,3 hPa 0,0 l/m 0 min 0 min 5 W/m 14,6 km/h (3 Bft) 97,87 %
17.12.2015 06:16 12,9 C 12,8 C 11,1 C 95 % 0 lf 1022,3 hPa 0,0 l/m 0 min 0 min 5 W/m 20,9 km/h (4 Bft) 100,00 %
17.12.2015 06:18 12,9 C 12,8 C 11,1 C 95 % 0 lf 1022,3 hPa 0,0 l/m 0 min 0 min 5 W/m 14,6 km/h (3 Bft) 100,00 %
17.12.2015 06:20 12,9 C 12,8 C 11,1 C 95 % 0 lf 1022,4 hPa 0,0 l/m 0 min 0 min 5 W/m 12,6 km/h (3 Bft) 100,00 %
17.12.2015 06:22 12,9 C 12,8 C 11,1 C 95 % 0 lf 1022,4 hPa 0,0 l/m 0 min 0 min 5 W/m 14,6 km/h (3 Bft) 100,00 %
17.12.2015 06:24 12,8 C 12,8 C 11,1 C 95 % 0 lf 1022,4 hPa 0,0 l/m 0 min 0 min 5 W/m 14,6 km/h (3 Bft) 100,00 %
17.12.2015 06:26 12,8 C 12,8 C 11,1 C 95 % 0 lf 1022,5 hPa 0,0 l/m 0 min 0 min 5 W/m 10,5 km/h (2 Bft) 100,00 %
17.12.2015 06:28 12,8 C 12,8 C 11,1 C 95 % 0 lf 1022,4 hPa 0,0 l/m 0 min 0 min 5 W/m 10,5 km/h (2 Bft) 93,62 %
17.12.2015 06:30 12,8 C 12,8 C 11,1 C 95 % 0 lf 1022,4 hPa 0,0 l/m 0 min 0 min 5 W/m 16,7 km/h (3 Bft) 97,87 %
17.12.2015 06:32 12,8 C 12,8 C 11,1 C 95 % 0 lf 1022,4 hPa 0,0 l/m 0 min 0 min 5 W/m 14,6 km/h (3 Bft) 100,00 %
17.12.2015 06:34 12,8 C 12,8 C 11,1 C 95 % 0 lf 1022,4 hPa 0,0 l/m 0 min 0 min 5 W/m 12,6 km/h (3 Bft) 100,00 %
17.12.2015 06:36 12,8 C 12,8 C 11,1 C 95 % 0 lf 1022,4 hPa 0,0 l/m 0 min 0 min 5 W/m 14,6 km/h (3 Bft) 100,00 %
17.12.2015 06:38 12,8 C 12,8 C 11,1 C 95 % 0 lf 1022,4 hPa 0,0 l/m 0 min 0 min 5 W/m 18,8 km/h (3 Bft) 100,00 %
17.12.2015 06:40 12,8 C 12,8 C 11,1 C 95 % 0 lf 1022,3 hPa 0,0 l/m 0 min 0 min 5 W/m 16,7 km/h (3 Bft) 100,00 %
17.12.2015 06:42 12,8 C 12,8 C 11,1 C 95 % 0 lf 1022,3 hPa 0,0 l/m 0 min 0 min 5 W/m 12,6 km/h (3 Bft) 97,87 %
17.12.2015 06:44 12,8 C 12,8 C 11,1 C 95 % 0 lf 1022,2 hPa 0,0 l/m 0 min 0 min 5 W/m 18,8 km/h (3 Bft) 95,74 %
17.12.2015 06:46 12,8 C 12,8 C 11,1 C 95 % 0 lf 1022,2 hPa 0,0 l/m 0 min 0 min 5 W/m 16,7 km/h (3 Bft) 100,00 %
17.12.2015 06:48 12,8 C 12,8 C 11,1 C 95 % 0 lf 1022,2 hPa 0,0 l/m 0 min 0 min 5 W/m 16,7 km/h (3 Bft) 100,00 %
17.12.2015 06:50 12,8 C 12,8 C 11,1 C 95 % 0 lf 1022,2 hPa 0,0 l/m 0 min 0 min 5 W/m 14,6 km/h (3 Bft) 100,00 %
17.12.2015 06:52 12,8 C 12,8 C 11,1 C 95 % 0 lf 1022,2 hPa 0,0 l/m 0 min 0 min 5 W/m 14,6 km/h (3 Bft) 100,00 %
17.12.2015 06:54 12,8 C 12,8 C 11,1 C 95 % 0 lf 1022,2 hPa 0,0 l/m 0 min 0 min 5 W/m 14,6 km/h (3 Bft) 97,87 %
17.12.2015 06:56 12,8 C 12,8 C 11,1 C 95 % 0 lf 1022,1 hPa 0,0 l/m 0 min 0 min 5 W/m 16,7 km/h (3 Bft) 97,83 %
17.12.2015 06:58 12,8 C 12,8 C 11,1 C 95 % 0 lf 1022,2 hPa 0,0 l/m 0 min 0 min 5 W/m 14,6 km/h (3 Bft) 100,00 %
17.12.2015 07:00 12,8 C 12,8 C 11,1 C 95 % 0 lf 1022,1 hPa 0,0 l/m 0 min 0 min 5 W/m 12,6 km/h (3 Bft) 97,87 %
17.12.2015 07:02 12,8 C 12,8 C 11,1 C 95 % 0 lf 1022,0 hPa 0,0 l/m 0 min 0 min 5 W/m 12,6 km/h (3 Bft) 92,86 %
17.12.2015 07:04 12,8 C 12,8 C 11,1 C 95 % 0 lf 1022,0 hPa 0,0 l/m 0 min 0 min 5 W/m 14,6 km/h (3 Bft) 100,00 %
17.12.2015 07:06 12,8 C 12,8 C 11,1 C 95 % 0 lf 1022,1 hPa 0,0 l/m 0 min 0 min 5 W/m 14,6 km/h (3 Bft) 97,87 %
17.12.2015 07:08 12,8 C 12,8 C 11,1 C 95 % 0 lf 1022,1 hPa 0,0 l/m 0 min 0 min 5 W/m 14,6 km/h (3 Bft) 100,00 %
17.12.2015 07:10 12,8 C 12,8 C 11,1 C 95 % 0 lf 1022,1 hPa 0,0 l/m 0 min 0 min 5 W/m 10,5 km/h (2 Bft) 95,74 %
17.12.2015 07:12 12,8 C 12,8 C 11,1 C 95 % 0 lf 1022,0 hPa 0,0 l/m 0 min 0 min 5 W/m 20,9 km/h (4 Bft) 95,74 %
17.12.2015 07:14 12,8 C 12,8 C 11,1 C 95 % 0 lf 1022,0 hPa 0,0 l/m 0 min 0 min 5 W/m 10,5 km/h (2 Bft) 95,74 %
17.12.2015 07:16 12,8 C 12,8 C 11,1 C 95 % 0 lf 1022,1 hPa 0,0 l/m 0 min 0 min 5 W/m 8,4 km/h (2 Bft) 95,74 %
17.12.2015 07:18 12,8 C 12,8 C 11,1 C 95 % 0 lf 1022,1 hPa 0,0 l/m 0 min 0 min 5 W/m 10,5 km/h (2 Bft) 93,62 %
17.12.2015 07:20 12,8 C 12,8 C 11,1 C 95 % 0 lf 1022,1 hPa 0,0 l/m 0 min 0 min 5 W/m 12,6 km/h (3 Bft) 93,48 %
17.12.2015 07:22 12,8 C 12,8 C 11,1 C 95 % 0 lf 1022,1 hPa 0,0 l/m 0 min 0 min 5 W/m 12,6 km/h (3 Bft) 95,74 %
17.12.2015 07:24 12,8 C 12,8 C 11,1 C 95 % 0 lf 1022,1 hPa 0,0 l/m 0 min 0 min 5 W/m 6,3 km/h (2 Bft) 95,74 %
17.12.2015 07:26 12,8 C 12,8 C 11,1 C 95 % 0 lf 1022,1 hPa 0,0 l/m 0 min 0 min 5 W/m 10,5 km/h (2 Bft) 93,62 %
17.12.2015 07:28 12,8 C 12,8 C 11,1 C 95 % 0 lf 1022,0 hPa 0,0 l/m 0 min 0 min 5 W/m 14,6 km/h (3 Bft) 95,74 %
17.12.2015 07:30 12,8 C 12,8 C 11,1 C 95 % 0 lf 1022,0 hPa 0,0 l/m 0 min 0 min 5 W/m 12,6 km/h (3 Bft) 93,62 %
17.12.2015 07:32 12,8 C 12,8 C 11,1 C 95 % 0 lf 1022,0 hPa 0,0 l/m 0 min 0 min 5 W/m 8,4 km/h (2 Bft) 91,30 %
17.12.2015 07:34 12,8 C 12,8 C 11,1 C 95 % 0 lf 1022,0 hPa 0,0 l/m 0 min 0 min 5 W/m 12,6 km/h (3 Bft) 91,49 %
17.12.2015 07:36 12,8 C 12,8 C 11,1 C 95 % 0 lf 1021,9 hPa 0,0 l/m 0 min 0 min 5 W/m 10,5 km/h (2 Bft) 93,62 %
17.12.2015 07:38 12,8 C 12,8 C 11,1 C 95 % 0 lf 1022,0 hPa 0,0 l/m 0 min 0 min 5 W/m 10,5 km/h (2 Bft) 93,62 %
17.12.2015 07:40 12,8 C 12,8 C 11,1 C 95 % 0 lf 1021,9 hPa 0,0 l/m 0 min 0 min 5 W/m 10,5 km/h (2 Bft) 91,49 %
17.12.2015 07:42 12,7 C 12,8 C 11,1 C 95 % 0 lf 1021,8 hPa 0,0 l/m 0 min 0 min 5 W/m 14,6 km/h (3 Bft) 91,49 %
17.12.2015 07:44 12,8 C 12,8 C 11,1 C 95 % 0 lf 1021,9 hPa 0,0 l/m 0 min 0 min 5 W/m 10,5 km/h (2 Bft) 91,30 %
17.12.2015 07:46 12,7 C 12,8 C 11,1 C 95 % 0 lf 1022,0 hPa 0,0 l/m 0 min 0 min 5 W/m 10,5 km/h (2 Bft) 93,62 %
17.12.2015 07:48 12,7 C 12,8 C 11,1 C 95 % 0 lf 1022,0 hPa 0,0 l/m 0 min 0 min 5 W/m 12,6 km/h (3 Bft) 91,49 %
17.12.2015 07:50 12,7 C 12,8 C 11,1 C 95 % 0 lf 1022,1 hPa 0,0 l/m 0 min 0 min 5 W/m 14,6 km/h (3 Bft) 95,74 %
17.12.2015 07:52 12,7 C 12,8 C 11,1 C 95 % 0 lf 1022,1 hPa 0,0 l/m 0 min 0 min 5 W/m 16,7 km/h (3 Bft) 93,62 %
17.12.2015 07:54 12,7 C 12,8 C 11,1 C 95 % 0 lf 1022,0 hPa 0,0 l/m 0 min 0 min 5 W/m 12,6 km/h (3 Bft) 97,87 %
17.12.2015 07:56 12,7 C 12,8 C 11,1 C 95 % 0 lf 1022,0 hPa 0,0 l/m 0 min 0 min 5 W/m 14,6 km/h (3 Bft) 93,48 %
17.12.2015 07:58 12,7 C 12,8 C 11,1 C 95 % 0 lf 1022,0 hPa 0,0 l/m 0 min 0 min 5 W/m 14,6 km/h (3 Bft) 95,74 %
17.12.2015 08:00 12,7 C 12,8 C 11,1 C 95 % 0 lf 1021,9 hPa 0,0 l/m 0 min 0 min 5 W/m 14,6 km/h (3 Bft) 93,88 %
17.12.2015 08:02 12,7 C 12,8 C 11,1 C 95 % 0 lf 1022,0 hPa 0,0 l/m 0 min 0 min 5 W/m 12,6 km/h (3 Bft) 93,62 %
17.12.2015 08:04 12,7 C 12,8 C 11,1 C 95 % 0 lf 1021,9 hPa 0,0 l/m 0 min 0 min 5 W/m 6,3 km/h (2 Bft) 95,24 %
17.12.2015 08:06 12,7 C 12,8 C 11,1 C 95 % 0 lf 1022,0 hPa 0,0 l/m 0 min 0 min 5 W/m 10,5 km/h (2 Bft) 93,62 %
17.12.2015 08:08 12,7 C 12,8 C 11,1 C 95 % 0 lf 1022,0 hPa 0,0 l/m 0 min 0 min 5 W/m 12,6 km/h (3 Bft) 93,48 %
17.12.2015 08:10 12,7 C 12,8 C 11,1 C 95 % 0 lf 1022,0 hPa 0,0 l/m 0 min 0 min 5 W/m 8,4 km/h (2 Bft) 95,74 %
17.12.2015 08:12 12,7 C 12,8 C 11,1 C 95 % 0 lf 1022,0 hPa 0,0 l/m 0 min 0 min 5 W/m 10,5 km/h (2 Bft) 91,49 %
17.12.2015 08:14 12,7 C 12,8 C 11,1 C 95 % 0 lf 1022,1 hPa 0,0 l/m 0 min 0 min 5 W/m 12,6 km/h (3 Bft) 93,62 %
17.12.2015 08:16 12,7 C 12,8 C 11,1 C 95 % 0 lf 1022,0 hPa 0,0 l/m 0 min 0 min 5 W/m 8,4 km/h (2 Bft) 93,62 %
17.12.2015 08:18 12,8 C 12,8 C 11,1 C 95 % 0 lf 1022,0 hPa 0,0 l/m 0 min 0 min 5 W/m 8,4 km/h (2 Bft) 93,48 %
17.12.2015 08:20 12,8 C 12,8 C 11,1 C 95 % 0 lf 1022,1 hPa 0,0 l/m 0 min 0 min 5 W/m 14,6 km/h (3 Bft) 91,49 %
17.12.2015 08:22 12,7 C 12,8 C 11,1 C 95 % 0 lf 1022,0 hPa 0,0 l/m 0 min 0 min 5 W/m 8,4 km/h (2 Bft) 95,74 %
17.12.2015 08:24 12,8 C 12,8 C 11,1 C 95 % 0 lf 1022,0 hPa 0,0 l/m 0 min 0 min 5 W/m 10,5 km/h (2 Bft) 93,62 %
17.12.2015 08:26 12,7 C 12,8 C 11,1 C 95 % 0 lf 1022,0 hPa 0,0 l/m 0 min 0 min 5 W/m 8,4 km/h (2 Bft) 91,49 %
17.12.2015 08:28 12,8 C 12,8 C 11,1 C 95 % 0 lf 1022,0 hPa 0,0 l/m 0 min 0 min 5 W/m 14,6 km/h (3 Bft) 93,62 %
17.12.2015 08:30 12,8 C 12,8 C 11,1 C 95 % 0 lf 1022,0 hPa 0,0 l/m 0 min 0 min 7 W/m 14,6 km/h (3 Bft) 97,83 %
17.12.2015 08:32 12,8 C 13,3 C 11,1 C 95 % 0 lf 1022,0 hPa 0,0 l/m 0 min 0 min 7 W/m 16,7 km/h (3 Bft) 97,87 %
17.12.2015 08:34 12,8 C 13,3 C 11,1 C 95 % 0 lf 1022,1 hPa 0,0 l/m 0 min 0 min 7 W/m 16,7 km/h (3 Bft) 93,62 %
17.12.2015 08:36 12,8 C 13,3 C 11,1 C 95 % 0 lf 1022,1 hPa 0,0 l/m 0 min 0 min 7 W/m 12,6 km/h (3 Bft) 91,49 %
17.12.2015 08:38 12,8 C 13,3 C 11,1 C 95 % 0 lf 1022,1 hPa 0,0 l/m 0 min 0 min 7 W/m 14,6 km/h (3 Bft) 93,62 %
17.12.2015 08:40 12,8 C 13,3 C 11,1 C 95 % 0 lf 1022,1 hPa 0,0 l/m 0 min 0 min 7 W/m 14,6 km/h (3 Bft) 97,87 %
17.12.2015 08:42 12,8 C 13,3 C 11,7 C 95 % 0 lf 1022,1 hPa 0,0 l/m 0 min 0 min 9 W/m 14,6 km/h (3 Bft) 95,65 %
17.12.2015 08:44 12,8 C 13,3 C 11,7 C 95 % 0 lf 1022,1 hPa 0,0 l/m 0 min 0 min 9 W/m 12,6 km/h (3 Bft) 97,87 %
17.12.2015 08:46 12,8 C 13,3 C 11,7 C 95 % 0 lf 1022,1 hPa 0,0 l/m 0 min 0 min 9 W/m 10,5 km/h (2 Bft) 95,74 %
17.12.2015 08:48 12,8 C 13,3 C 11,7 C 95 % 0 lf 1022,1 hPa 0,0 l/m 0 min 0 min 9 W/m 10,5 km/h (2 Bft) 95,74 %
17.12.2015 08:50 12,8 C 13,3 C 11,7 C 95 % 0 lf 1022,1 hPa 0,0 l/m 0 min 0 min 9 W/m 10,5 km/h (2 Bft) 97,87 %
17.12.2015 08:52 12,9 C 13,3 C 11,7 C 95 % 0 lf 1022,1 hPa 0,0 l/m 0 min 0 min 11 W/m 10,5 km/h (2 Bft) 97,87 %
17.12.2015 08:54 12,8 C 13,3 C 11,1 C 95 % 0 lf 1022,1 hPa 0,0 l/m 0 min 0 min 12 W/m 10,5 km/h (2 Bft) 95,65 %
17.12.2015 08:56 12,9 C 13,3 C 11,1 C 95 % 0 lf 1022,1 hPa 0,0 l/m 0 min 0 min 13 W/m 12,6 km/h (3 Bft) 100,00 %
17.12.2015 08:58 12,9 C 13,3 C 11,7 C 95 % 0 lf 1022,1 hPa 0,0 l/m 0 min 0 min 13 W/m 10,5 km/h (2 Bft) 100,00 %
17.12.2015 09:00 12,9 C 13,3 C 11,7 C 95 % 0 lf 1022,2 hPa 0,0 l/m 0 min 0 min 12 W/m 12,6 km/h (3 Bft) 100,00 %
17.12.2015 09:02 12,9 C 13,3 C 11,1 C 95 % 0 lf 1022,1 hPa 0,0 l/m 0 min 0 min 14 W/m 8,4 km/h (2 Bft) 97,96 %
17.12.2015 09:04 12,9 C 13,3 C 11,7 C 95 % 0 lf 1022,1 hPa 0,0 l/m 0 min 0 min 14 W/m 10,5 km/h (2 Bft) 95,65 %
17.12.2015 09:06 12,9 C 13,3 C 11,7 C 95 % 0 lf 1022,2 hPa 0,0 l/m 0 min 0 min 16 W/m 6,3 km/h (2 Bft) 95,74 %
17.12.2015 09:08 12,9 C 13,3 C 11,1 C 95 % 0 lf 1022,2 hPa 0,0 l/m 0 min 0 min 18 W/m 10,5 km/h (2 Bft) 97,87 %
17.12.2015 09:10 12,9 C 13,3 C 11,1 C 95 % 0 lf 1022,1 hPa 0,0 l/m 0 min 0 min 20 W/m 12,6 km/h (3 Bft) 97,87 %
17.12.2015 09:12 12,9 C 13,3 C 11,1 C 95 % 0 lf 1022,1 hPa 0,0 l/m 0 min 0 min 22 W/m 10,5 km/h (2 Bft) 97,87 %
17.12.2015 09:14 12,9 C 13,3 C 11,7 C 95 % 0 lf 1022,1 hPa 0,0 l/m 0 min 0 min 25 W/m 14,6 km/h (3 Bft) 97,87 %
17.12.2015 09:16 12,9 C 13,3 C 11,7 C 95 % 0 lf 1022,1 hPa 0,0 l/m 0 min 0 min 27 W/m 14,6 km/h (3 Bft) 97,83 %
17.12.2015 09:18 12,9 C 13,3 C 11,7 C 95 % 0 lf 1022,1 hPa 0,0 l/m 0 min 0 min 31 W/m 12,6 km/h (3 Bft) 95,74 %
17.12.2015 09:20 12,9 C 13,3 C 11,7 C 95 % 0 lf 1022,1 hPa 0,0 l/m 0 min 0 min 32 W/m 14,6 km/h (3 Bft) 97,87 %
17.12.2015 09:22 12,9 C 13,3 C 11,7 C 95 % 0 lf 1022,1 hPa 0,0 l/m 0 min 0 min 33 W/m 14,6 km/h (3 Bft) 95,74 %
17.12.2015 09:24 12,9 C 13,3 C 11,7 C 95 % 0 lf 1022,1 hPa 0,0 l/m 0 min 0 min 35 W/m 8,4 km/h (2 Bft) 97,87 %
17.12.2015 09:26 12,9 C 13,9 C 11,7 C 95 % 0 lf 1022,1 hPa 0,0 l/m 0 min 0 min 35 W/m 10,5 km/h (2 Bft) 97,87 %
17.12.2015 09:28 13,0 C 13,9 C 11,7 C 95 % 0 lf 1022,1 hPa 0,0 l/m 0 min 0 min 38 W/m 12,6 km/h (3 Bft) 95,65 %
17.12.2015 09:30 13,0 C 13,9 C 11,7 C 95 % 0 lf 1022,1 hPa 0,0 l/m 0 min 0 min 39 W/m 14,6 km/h (3 Bft) 95,74 %
17.12.2015 09:32 13,0 C 13,9 C 11,7 C 95 % 0 lf 1022,1 hPa 0,0 l/m 0 min 0 min 43 W/m 12,6 km/h (3 Bft) 97,87 %
17.12.2015 09:34 13,0 C 13,9 C 11,7 C 95 % 0 lf 1022,1 hPa 0,0 l/m 0 min 0 min 44 W/m 12,6 km/h (3 Bft) 95,74 %
17.12.2015 09:36 13,0 C 13,9 C 11,7 C 95 % 3 lf 1022,1 hPa 0,0 l/m 0 min 2 min 44 W/m 14,6 km/h (3 Bft) 95,74 %
17.12.2015 09:38 13,1 C 13,9 C 11,7 C 95 % 2 lf 1022,1 hPa 0,0 l/m 0 min 2 min 39 W/m 14,6 km/h (3 Bft) 97,87 %
17.12.2015 09:40 13,1 C 13,3 C 11,7 C 94 % 1 lf 1022,1 hPa 0,0 l/m 0 min 2 min 33 W/m 14,6 km/h (3 Bft) 100,00 %
17.12.2015 09:42 13,1 C 13,3 C 11,7 C 94 % 0 lf 1022,1 hPa 0,0 l/m 0 min 0 min 31 W/m 12,6 km/h (3 Bft) 100,00 %
17.12.2015 09:44 13,1 C 13,3 C 11,7 C 94 % 0 lf 1022,1 hPa 0,0 l/m 0 min 0 min 30 W/m 10,5 km/h (2 Bft) 100,00 %
17.12.2015 09:46 13,1 C 13,3 C 11,7 C 94 % 0 lf 1022,1 hPa 0,0 l/m 0 min 0 min 32 W/m 14,6 km/h (3 Bft) 97,87 %
17.12.2015 09:48 13,2 C 13,3 C 11,7 C 94 % 0 lf 1022,2 hPa 0,0 l/m 0 min 0 min 32 W/m 16,7 km/h (3 Bft) 100,00 %
17.12.2015 09:50 13,2 C 13,9 C 11,7 C 94 % 0 lf 1022,2 hPa 0,0 l/m 0 min 0 min 33 W/m 14,6 km/h (3 Bft) 97,83 %
17.12.2015 09:52 13,2 C 13,9 C 11,7 C 94 % 0 lf 1022,3 hPa 0,0 l/m 0 min 0 min 33 W/m 12,6 km/h (3 Bft) 100,00 %
17.12.2015 09:54 13,2 C 13,9 C 11,7 C 94 % 0 lf 1022,3 hPa 0,0 l/m 0 min 0 min 32 W/m 12,6 km/h (3 Bft) 100,00 %
17.12.2015 09:56 13,2 C 13,9 C 11,7 C 94 % 0 lf 1022,4 hPa 0,0 l/m 0 min 0 min 32 W/m 12,6 km/h (3 Bft) 100,00 %
17.12.2015 09:58 13,2 C 13,9 C 11,7 C 94 % 0 lf 1022,4 hPa 0,0 l/m 0 min 0 min 33 W/m 14,6 km/h (3 Bft) 97,87 %
17.12.2015 10:00 13,2 C 13,9 C 11,7 C 94 % 0 lf 1022,3 hPa 0,0 l/m 0 min 0 min 38 W/m 10,5 km/h (2 Bft) 100,00 %
17.12.2015 10:02 13,2 C 13,9 C 11,7 C 94 % 0 lf 1022,3 hPa 0,0 l/m 0 min 0 min 41 W/m 12,6 km/h (3 Bft) 98,00 %
17.12.2015 10:04 13,2 C 13,9 C 11,7 C 94 % 0 lf 1022,3 hPa 0,0 l/m 0 min 0 min 44 W/m 10,5 km/h (2 Bft) 100,00 %
17.12.2015 10:06 13,3 C 13,9 C 11,7 C 94 % 0 lf 1022,3 hPa 0,0 l/m 0 min 0 min 49 W/m 16,7 km/h (3 Bft) 97,87 %
17.12.2015 10:08 13,3 C 13,9 C 11,7 C 94 % 0 lf 1022,3 hPa 0,0 l/m 0 min 0 min 55 W/m 14,6 km/h (3 Bft) 95,83 %
17.12.2015 10:10 13,3 C 13,9 C 11,7 C 94 % 0 lf 1022,4 hPa 0,0 l/m 0 min 0 min 59 W/m 10,5 km/h (2 Bft) 95,74 %
17.12.2015 10:12 13,3 C 13,9 C 11,7 C 94 % 0 lf 1022,3 hPa 0,0 l/m 0 min 0 min 62 W/m 10,5 km/h (2 Bft) 100,00 %
17.12.2015 10:14 13,3 C 13,9 C 11,7 C 94 % 0 lf 1022,3 hPa 0,0 l/m 0 min 0 min 61 W/m 12,6 km/h (3 Bft) 97,83 %
17.12.2015 10:16 13,3 C 14,4 C 11,7 C 94 % 0 lf 1022,4 hPa 0,0 l/m 0 min 0 min 61 W/m 12,6 km/h (3 Bft) 100,00 %
17.12.2015 10:18 13,3 C 14,4 C 11,7 C 94 % 0 lf 1022,3 hPa 0,0 l/m 0 min 0 min 64 W/m 10,5 km/h (2 Bft) 100,00 %
17.12.2015 10:20 13,3 C 14,4 C 11,7 C 94 % 0 lf 1022,3 hPa 0,0 l/m 0 min 0 min 67 W/m 10,5 km/h (2 Bft) 100,00 %
17.12.2015 10:22 13,3 C 14,4 C 12,2 C 94 % 0 lf 1022,3 hPa 0,0 l/m 0 min 0 min 69 W/m 8,4 km/h (2 Bft) 97,87 %
17.12.2015 10:24 13,3 C 14,4 C 11,7 C 94 % 0 lf 1022,3 hPa 0,0 l/m 0 min 0 min 78 W/m 6,3 km/h (2 Bft) 97,87 %
17.12.2015 10:26 13,4 C 14,4 C 12,2 C 93 % 0 lf 1022,4 hPa 0,0 l/m 0 min 0 min 88 W/m 8,4 km/h (2 Bft) 100,00 %
17.12.2015 10:28 13,4 C 14,4 C 12,2 C 93 % 0 lf 1022,4 hPa 0,0 l/m 0 min 0 min 94 W/m 12,6 km/h (3 Bft) 95,74 %
17.12.2015 10:30 13,4 C 15,0 C 12,2 C 93 % 0 lf 1022,3 hPa 0,0 l/m 2 min 0 min 100 W/m 10,5 km/h (2 Bft) 97,87 %
17.12.2015 10:32 13,4 C 15,0 C 12,2 C 93 % 0 lf 1022,3 hPa 0,0 l/m 2 min 0 min 108 W/m 10,5 km/h (2 Bft) 97,87 %
17.12.2015 10:34 13,4 C 15,0 C 12,2 C 93 % 0 lf 1022,4 hPa 0,0 l/m 0 min 0 min 98 W/m 12,6 km/h (3 Bft) 97,87 %
17.12.2015 10:36 13,4 C 15,0 C 12,2 C 93 % 0 lf 1022,3 hPa 0,0 l/m 0 min 0 min 90 W/m 14,6 km/h (3 Bft) 95,74 %
17.12.2015 10:38 13,5 C 15,0 C 12,2 C 93 % 0 lf 1022,3 hPa 0,0 l/m 0 min 0 min 93 W/m 10,5 km/h (2 Bft) 95,65 %
17.12.2015 10:40 13,5 C 15,0 C 12,2 C 93 % 0 lf 1022,3 hPa 0,0 l/m 2 min 0 min 104 W/m 12,6 km/h (3 Bft) 93,62 %
17.12.2015 10:42 13,5 C 15,0 C 12,2 C 93 % 0 lf 1022,3 hPa 0,0 l/m 2 min 0 min 113 W/m 16,7 km/h (3 Bft) 93,62 %
17.12.2015 10:44 13,6 C 15,0 C 12,2 C 93 % 0 lf 1022,2 hPa 0,0 l/m 2 min 0 min 104 W/m 16,7 km/h (3 Bft) 97,87 %
17.12.2015 10:46 13,6 C 15,0 C 12,2 C 93 % 0 lf 1022,3 hPa 0,0 l/m 0 min 0 min 105 W/m 8,4 km/h (2 Bft) 91,49 %
17.12.2015 10:48 13,6 C 15,6 C 12,2 C 93 % 0 lf 1022,2 hPa 0,0 l/m 2 min 0 min 122 W/m 18,8 km/h (3 Bft) 97,87 %
17.12.2015 10:50 13,6 C 15,6 C 12,2 C 93 % 0 lf 1022,3 hPa 0,0 l/m 2 min 0 min 170 W/m 18,8 km/h (3 Bft) 95,65 %
17.12.2015 10:52 13,7 C 16,1 C 12,8 C 93 % 0 lf 1022,2 hPa 0,0 l/m 2 min 0 min 184 W/m 14,6 km/h (3 Bft) 91,49 %
17.12.2015 10:54 13,7 C 17,2 C 12,8 C 92 % 0 lf 1022,2 hPa 0,0 l/m 2 min 0 min 184 W/m 14,6 km/h (3 Bft) 95,74 %
17.12.2015 10:56 13,8 C 17,2 C 12,8 C 93 % 0 lf 1022,2 hPa 0,0 l/m 2 min 0 min 174 W/m 8,4 km/h (2 Bft) 95,74 %
17.12.2015 10:58 13,8 C 17,8 C 12,8 C 92 % 0 lf 1022,2 hPa 0,0 l/m 2 min 0 min 174 W/m 16,7 km/h (3 Bft) 95,74 %
17.12.2015 11:00 13,8 C 17,8 C 12,8 C 92 % 0 lf 1022,1 hPa 0,0 l/m 2 min 0 min 174 W/m 12,6 km/h (3 Bft) 91,49 %
17.12.2015 11:02 13,9 C 17,8 C 12,8 C 92 % 0 lf 1022,1 hPa 0,0 l/m 2 min 0 min 178 W/m 14,6 km/h (3 Bft) 93,75 %
17.12.2015 11:04 14,0 C 18,3 C 13,3 C 92 % 0 lf 1022,2 hPa 0,0 l/m 2 min 0 min 190 W/m 12,6 km/h (3 Bft) 93,62 %
17.12.2015 11:06 14,1 C 18,3 C 13,3 C 92 % 0 lf 1022,1 hPa 0,0 l/m 2 min 0 min 198 W/m 10,5 km/h (2 Bft) 95,74 %
17.12.2015 11:08 14,2 C 18,9 C 13,3 C 92 % 0 lf 1022,2 hPa 0,0 l/m 2 min 0 min 196 W/m 10,5 km/h (2 Bft) 89,36 %
17.12.2015 11:10 14,2 C 18,9 C 13,3 C 92 % 0 lf 1022,2 hPa 0,0 l/m 2 min 0 min 203 W/m 16,7 km/h (3 Bft) 85,11 %
17.12.2015 11:12 14,2 C 18,9 C 13,3 C 92 % 0 lf 1022,1 hPa 0,0 l/m 2 min 0 min 190 W/m 14,6 km/h (3 Bft) 93,48 %
17.12.2015 11:14 14,2 C 19,4 C 13,3 C 91 % 0 lf 1022,1 hPa 0,0 l/m 2 min 0 min 215 W/m 16,7 km/h (3 Bft) 91,49 %
17.12.2015 11:16 14,2 C 20,0 C 13,9 C 91 % 0 lf 1022,1 hPa 0,0 l/m 2 min 0 min 221 W/m 12,6 km/h (3 Bft) 91,49 %
17.12.2015 11:18 14,3 C 19,4 C 13,9 C 91 % 0 lf 1022,1 hPa 0,0 l/m 2 min 0 min 224 W/m 16,7 km/h (3 Bft) 93,62 %
17.12.2015 11:20 14,4 C 19,4 C 13,9 C 91 % 0 lf 1022,1 hPa 0,0 l/m 2 min 0 min 214 W/m 14,6 km/h (3 Bft) 91,49 %
17.12.2015 11:22 14,5 C 18,9 C 13,9 C 91 % 0 lf 1022,1 hPa 0,0 l/m 2 min 0 min 183 W/m 20,9 km/h (4 Bft) 93,62 %
17.12.2015 11:24 14,6 C 18,3 C 13,9 C 90 % 0 lf 1022,1 hPa 0,0 l/m 2 min 0 min 139 W/m 18,8 km/h (3 Bft) 91,30 %
17.12.2015 11:26 14,7 C 17,8 C 13,3 C 90 % 0 lf 1022,1 hPa 0,0 l/m 2 min 0 min 130 W/m 12,6 km/h (3 Bft) 89,36 %
17.12.2015 11:28 14,7 C 17,2 C 13,3 C 90 % 0 lf 1022,1 hPa 0,0 l/m 0 min 0 min 120 W/m 12,6 km/h (3 Bft) 93,62 %
17.12.2015 11:30 14,8 C 16,7 C 13,3 C 89 % 0 lf 1022,1 hPa 0,0 l/m 0 min 0 min 112 W/m 12,6 km/h (3 Bft) 93,62 %
17.12.2015 11:32 14,8 C 16,7 C 13,3 C 89 % 0 lf 1022,1 hPa 0,0 l/m 0 min 0 min 105 W/m 14,6 km/h (3 Bft) 93,62 %
17.12.2015 11:34 14,9 C 16,1 C 13,3 C 89 % 0 lf 1022,0 hPa 0,0 l/m 0 min 0 min 98 W/m 25,1 km/h (4 Bft) 93,62 %
17.12.2015 11:36 14,9 C 16,1 C 13,3 C 88 % 0 lf 1022,0 hPa 0,0 l/m 0 min 0 min 95 W/m 18,8 km/h (3 Bft) 91,30 %
17.12.2015 11:38 14,9 C 16,1 C 13,3 C 88 % 0 lf 1022,0 hPa 0,0 l/m 0 min 0 min 92 W/m 18,8 km/h (3 Bft) 93,62 %
17.12.2015 11:40 14,9 C 15,6 C 13,3 C 88 % 0 lf 1022,0 hPa 0,0 l/m 0 min 0 min 90 W/m 16,7 km/h (3 Bft) 93,62 %
17.12.2015 11:42 14,9 C 15,6 C 13,3 C 87 % 0 lf 1022,0 hPa 0,0 l/m 0 min 0 min 86 W/m 18,8 km/h (3 Bft) 95,74 %
17.12.2015 11:44 14,9 C 15,6 C 13,3 C 87 % 0 lf 1022,0 hPa 0,0 l/m 0 min 0 min 83 W/m 18,8 km/h (3 Bft) 95,74 %
17.12.2015 11:46 14,9 C 15,6 C 13,3 C 87 % 0 lf 1022,0 hPa 0,0 l/m 0 min 0 min 81 W/m 20,9 km/h (4 Bft) 93,62 %
17.12.2015 11:48 14,9 C 15,6 C 13,3 C 87 % 0 lf 1021,9 hPa 0,0 l/m 0 min 0 min 81 W/m 16,7 km/h (3 Bft) 95,65 %
17.12.2015 11:50 14,9 C 15,6 C 13,3 C 87 % 0 lf 1021,9 hPa 0,0 l/m 0 min 0 min 83 W/m 18,8 km/h (3 Bft) 93,62 %
17.12.2015 11:52 15,0 C 15,6 C 13,3 C 87 % 0 lf 1021,9 hPa 0,0 l/m 0 min 0 min 83 W/m 14,6 km/h (3 Bft) 95,74 %
17.12.2015 11:54 15,0 C 15,6 C 13,3 C 87 % 0 lf 1021,9 hPa 0,0 l/m 0 min 0 min 84 W/m 20,9 km/h (4 Bft) 95,74 %
17.12.2015 11:56 15,0 C 15,6 C 13,3 C 87 % 0 lf 1021,9 hPa 0,0 l/m 0 min 0 min 84 W/m 14,6 km/h (3 Bft) 93,62 %
17.12.2015 11:58 15,0 C 15,6 C 13,3 C 87 % 0 lf 1021,9 hPa 0,0 l/m 0 min 0 min 86 W/m 16,7 km/h (3 Bft) 97,87 %
17.12.2015 12:00 15,0 C 15,6 C 13,3 C 86 % 0 lf 1021,9 hPa 0,0 l/m 0 min 0 min 88 W/m 14,6 km/h (3 Bft) 95,65 %
17.12.2015 12:02 15,0 C 15,6 C 13,3 C 87 % 0 lf 1021,9 hPa 0,0 l/m 0 min 0 min 90 W/m 12,6 km/h (3 Bft) 97,87 %
17.12.2015 12:06 15,0 C 15,6 C 13,3 C 87 % 0 lf 1021,9 hPa 0,0 l/m 0 min 0 min 93 W/m 23,0 km/h (4 Bft) 100,00 %
17.12.2015 12:08 15,0 C 15,6 C 13,3 C 87 % 0 lf 1021,8 hPa 0,0 l/m 0 min 0 min 97 W/m 16,7 km/h (3 Bft) 100,00 %
17.12.2015 12:10 15,0 C 15,6 C 13,3 C 87 % 0 lf 1021,8 hPa 0,0 l/m 0 min 0 min 99 W/m 16,7 km/h (3 Bft) 95,65 %
17.12.2015 12:12 15,0 C 15,6 C 13,3 C 87 % 0 lf 1021,8 hPa 0,0 l/m 0 min 0 min 104 W/m 23,0 km/h (4 Bft) 100,00 %
17.12.2015 12:14 15,0 C 15,6 C 13,3 C 87 % 0 lf 1021,8 hPa 0,0 l/m 0 min 0 min 107 W/m 16,7 km/h (3 Bft) 100,00 %
17.12.2015 12:16 15,0 C 15,6 C 13,3 C 86 % 0 lf 1021,8 hPa 0,0 l/m 0 min 0 min 109 W/m 16,7 km/h (3 Bft) 100,00 %
17.12.2015 12:18 15,0 C 16,1 C 13,3 C 86 % 0 lf 1021,8 hPa 0,0 l/m 0 min 0 min 111 W/m 23,0 km/h (4 Bft) 95,74 %
17.12.2015 12:20 15,0 C 16,1 C 13,3 C 86 % 0 lf 1021,8 hPa 0,0 l/m 0 min 0 min 113 W/m 23,0 km/h (4 Bft) 95,74 %
17.12.2015 12:22 15,0 C 16,1 C 13,9 C 86 % 0 lf 1021,8 hPa 0,0 l/m 0 min 0 min 113 W/m 14,6 km/h (3 Bft) 100,00 %
17.12.2015 12:24 15,1 C 16,1 C 13,9 C 86 % 0 lf 1021,7 hPa 0,0 l/m 0 min 0 min 113 W/m 14,6 km/h (3 Bft) 97,87 %
17.12.2015 12:26 15,1 C 16,1 C 13,3 C 86 % 0 lf 1021,7 hPa 0,0 l/m 0 min 0 min 113 W/m 23,0 km/h (4 Bft) 100,00 %
17.12.2015 12:28 15,1 C 16,1 C 13,3 C 86 % 0 lf 1021,6 hPa 0,0 l/m 0 min 0 min 113 W/m 25,1 km/h (4 Bft) 100,00 %
17.12.2015 12:30 15,1 C 16,1 C 13,3 C 86 % 0 lf 1021,6 hPa 0,0 l/m 0 min 0 min 112 W/m 27,2 km/h (4 Bft) 97,87 %
17.12.2015 12:32 15,1 C 16,1 C 13,3 C 86 % 0 lf 1021,6 hPa 0,0 l/m 0 min 0 min 109 W/m 18,8 km/h (3 Bft) 95,74 %
17.12.2015 12:34 15,1 C 16,1 C 13,3 C 86 % 0 lf 1021,6 hPa 0,0 l/m 0 min 0 min 107 W/m 20,9 km/h (4 Bft) 100,00 %
17.12.2015 12:36 15,1 C 16,1 C 13,3 C 85 % 0 lf 1021,6 hPa 0,0 l/m 0 min 0 min 108 W/m 18,8 km/h (3 Bft) 100,00 %
17.12.2015 12:38 15,1 C 16,1 C 13,3 C 85 % 0 lf 1021,6 hPa 0,0 l/m 0 min 0 min 112 W/m 14,6 km/h (3 Bft) 97,87 %
17.12.2015 12:40 15,1 C 16,7 C 13,3 C 85 % 0 lf 1021,5 hPa 0,0 l/m 0 min 0 min 114 W/m 14,6 km/h (3 Bft) 100,00 %
17.12.2015 12:42 15,1 C 16,7 C 13,3 C 85 % 0 lf 1021,6 hPa 0,0 l/m 0 min 0 min 111 W/m 23,0 km/h (4 Bft) 97,87 %
17.12.2015 12:44 15,1 C 16,7 C 13,3 C 85 % 0 lf 1021,5 hPa 0,0 l/m 0 min 0 min 106 W/m 20,9 km/h (4 Bft) 97,87 %
17.12.2015 12:46 15,1 C 16,7 C 13,3 C 85 % 0 lf 1021,5 hPa 0,0 l/m 0 min 0 min 104 W/m 23,0 km/h (4 Bft) 97,83 %
17.12.2015 12:48 15,1 C 16,7 C 13,3 C 85 % 0 lf 1021,5 hPa 0,0 l/m 0 min 0 min 108 W/m 29,3 km/h (5 Bft) 100,00 %
17.12.2015 12:50 15,2 C 16,1 C 13,3 C 85 % 0 lf 1021,5 hPa 0,0 l/m 0 min 0 min 84 W/m 20,9 km/h (4 Bft) 97,87 %
17.12.2015 12:52 15,1 C 16,1 C 12,8 C 85 % 0 lf 1021,4 hPa 0,0 l/m 0 min 0 min 81 W/m 16,7 km/h (3 Bft) 97,87 %
17.12.2015 12:54 15,1 C 16,7 C 12,8 C 85 % 0 lf 1021,4 hPa 0,0 l/m 0 min 0 min 113 W/m 27,2 km/h (4 Bft) 100,00 %
17.12.2015 12:56 15,1 C 17,2 C 13,3 C 85 % 0 lf 1021,4 hPa 0,0 l/m 2 min 0 min 183 W/m 16,7 km/h (3 Bft) 97,87 %
17.12.2015 12:58 15,2 C 18,3 C 13,3 C 85 % 0 lf 1021,4 hPa 0,0 l/m 2 min 0 min 212 W/m 16,7 km/h (3 Bft) 97,83 %
17.12.2015 13:00 15,2 C 18,3 C 13,3 C 85 % 0 lf 1021,4 hPa 0,0 l/m 2 min 0 min 210 W/m 25,1 km/h (4 Bft) 100,00 %
17.12.2015 13:02 15,2 C 18,9 C 13,3 C 85 % 0 lf 1021,4 hPa 0,0 l/m 2 min 0 min 207 W/m 18,8 km/h (3 Bft) 100,00 %
17.12.2015 13:04 15,2 C 18,9 C 13,3 C 85 % 0 lf 1021,3 hPa 0,0 l/m 2 min 0 min 205 W/m 18,8 km/h (3 Bft) 97,87 %
17.12.2015 13:06 15,3 C 19,4 C 13,9 C 85 % 0 lf 1021,3 hPa 0,0 l/m 2 min 0 min 202 W/m 23,0 km/h (4 Bft) 97,87 %
17.12.2015 13:08 15,3 C 18,9 C 13,3 C 85 % 0 lf 1021,3 hPa 0,0 l/m 2 min 0 min 201 W/m 25,1 km/h (4 Bft) 97,87 %
17.12.2015 13:10 15,4 C 19,4 C 13,9 C 84 % 0 lf 1021,2 hPa 0,0 l/m 2 min 0 min 199 W/m 16,7 km/h (3 Bft) 95,65 %
17.12.2015 13:12 15,4 C 20,0 C 13,9 C 84 % 0 lf 1021,2 hPa 0,0 l/m 2 min 0 min 198 W/m 18,8 km/h (3 Bft) 93,62 %
17.12.2015 13:14 15,5 C 20,0 C 13,9 C 84 % 0 lf 1021,2 hPa 0,0 l/m 2 min 0 min 197 W/m 25,1 km/h (4 Bft) 93,62 %
17.12.2015 13:16 15,6 C 19,4 C 13,9 C 84 % 0 lf 1021,1 hPa 0,0 l/m 2 min 0 min 195 W/m 18,8 km/h (3 Bft) 90,24 %
17.12.2015 13:18 15,6 C 19,4 C 13,9 C 84 % 0 lf 1021,2 hPa 0,0 l/m 2 min 0 min 193 W/m 18,8 km/h (3 Bft) 95,74 %
17.12.2015 13:20 15,7 C 19,4 C 13,9 C 83 % 0 lf 1021,1 hPa 0,0 l/m 2 min 0 min 192 W/m 23,0 km/h (4 Bft) 96,23 %
17.12.2015 13:22 15,7 C 19,4 C 13,9 C 83 % 0 lf 1021,1 hPa 0,0 l/m 2 min 0 min 192 W/m 18,8 km/h (3 Bft) 91,30 %
17.12.2015 13:24 15,7 C 18,9 C 13,9 C 83 % 0 lf 1021,1 hPa 0,0 l/m 2 min 0 min 151 W/m 18,8 km/h (3 Bft) 93,62 %
17.12.2015 13:26 15,8 C 18,3 C 13,9 C 83 % 0 lf 1021,1 hPa 0,0 l/m 2 min 0 min 135 W/m 25,1 km/h (4 Bft) 93,62 %
17.12.2015 13:28 15,8 C 18,3 C 13,9 C 82 % 0 lf 1021,1 hPa 0,0 l/m 0 min 0 min 114 W/m 20,9 km/h (4 Bft) 95,74 %
17.12.2015 13:30 15,8 C 17,8 C 13,9 C 82 % 0 lf 1021,1 hPa 0,0 l/m 0 min 0 min 103 W/m 14,6 km/h (3 Bft) 89,36 %
17.12.2015 13:32 15,8 C 17,8 C 13,3 C 82 % 0 lf 1021,1 hPa 0,0 l/m 0 min 0 min 90 W/m 16,7 km/h (3 Bft) 97,56 %
17.12.2015 13:34 15,9 C 17,8 C 13,3 C 82 % 0 lf 1021,1 hPa 0,0 l/m 0 min 0 min 98 W/m 14,6 km/h (3 Bft) 95,65 %
17.12.2015 13:36 15,9 C 17,8 C 13,3 C 82 % 0 lf 1021,1 hPa 0,0 l/m 0 min 0 min 112 W/m 27,2 km/h (4 Bft) 92,45 %
17.12.2015 13:38 15,9 C 17,8 C 13,3 C 82 % 0 lf 1021,1 hPa 0,0 l/m 0 min 0 min 104 W/m 20,9 km/h (4 Bft) 97,87 %
17.12.2015 13:40 15,8 C 17,8 C 13,3 C 81 % 0 lf 1021,0 hPa 0,0 l/m 0 min 0 min 98 W/m 18,8 km/h (3 Bft) 95,74 %
17.12.2015 13:42 15,8 C 17,2 C 13,3 C 81 % 0 lf 1021,0 hPa 0,0 l/m 0 min 0 min 86 W/m 16,7 km/h (3 Bft) 97,87 %
17.12.2015 13:44 15,8 C 16,7 C 13,3 C 81 % 0 lf 1021,0 hPa 0,0 l/m 0 min 0 min 80 W/m 20,9 km/h (4 Bft) 95,65 %
17.12.2015 13:46 15,8 C 16,7 C 13,3 C 81 % 0 lf 1020,9 hPa 0,0 l/m 0 min 0 min 76 W/m 18,8 km/h (3 Bft) 92,68 %
17.12.2015 13:48 15,8 C 17,2 C 13,3 C 81 % 0 lf 1021,0 hPa 0,0 l/m 0 min 0 min 95 W/m 16,7 km/h (3 Bft) 93,62 %
17.12.2015 13:50 15,8 C 18,3 C 13,3 C 82 % 0 lf 1020,9 hPa 0,0 l/m 2 min 0 min 146 W/m 14,6 km/h (3 Bft) 96,23 %
17.12.2015 13:52 15,7 C 18,9 C 13,3 C 82 % 0 lf 1020,9 hPa 0,0 l/m 2 min 0 min 148 W/m 20,9 km/h (4 Bft) 97,87 %
17.12.2015 13:54 15,8 C 20,0 C 13,3 C 82 % 0 lf 1020,9 hPa 0,0 l/m 2 min 0 min 170 W/m 12,6 km/h (3 Bft) 100,00 %
17.12.2015 13:56 15,8 C 20,6 C 13,3 C 82 % 0 lf 1020,9 hPa 0,0 l/m 2 min 0 min 169 W/m 12,6 km/h (3 Bft) 97,83 %
17.12.2015 13:58 15,8 C 20,6 C 13,9 C 82 % 0 lf 1020,8 hPa 0,0 l/m 2 min 0 min 139 W/m 16,7 km/h (3 Bft) 95,74 %
17.12.2015 14:00 15,8 C 20,0 C 13,3 C 82 % 0 lf 1020,9 hPa 0,0 l/m 2 min 0 min 132 W/m 14,6 km/h (3 Bft) 97,87 %
17.12.2015 14:02 15,8 C 20,0 C 13,3 C 82 % 0 lf 1020,8 hPa 0,0 l/m 2 min 0 min 123 W/m 14,6 km/h (3 Bft) 100,00 %
17.12.2015 14:04 15,8 C 19,4 C 13,3 C 82 % 0 lf 1020,8 hPa 0,0 l/m 2 min 0 min 135 W/m 18,8 km/h (3 Bft) 100,00 %
17.12.2015 14:06 15,8 C 20,0 C 13,3 C 82 % 0 lf 1020,8 hPa 0,0 l/m 2 min 0 min 145 W/m 18,8 km/h (3 Bft) 89,36 %
17.12.2015 14:08 15,9 C 20,0 C 13,3 C 82 % 0 lf 1020,8 hPa 0,0 l/m 2 min 0 min 140 W/m 18,8 km/h (3 Bft) 95,74 %
17.12.2015 14:10 15,9 C 20,0 C 13,9 C 81 % 0 lf 1020,7 hPa 0,0 l/m 2 min 0 min 130 W/m 20,9 km/h (4 Bft) 95,65 %
17.12.2015 14:12 15,9 C 18,9 C 13,9 C 81 % 0 lf 1020,7 hPa 0,0 l/m 2 min 0 min 109 W/m 23,0 km/h (4 Bft) 100,00 %
17.12.2015 14:14 15,9 C 18,9 C 13,9 C 81 % 0 lf 1020,7 hPa 0,0 l/m 0 min 0 min 101 W/m 20,9 km/h (4 Bft) 97,87 %
17.12.2015 14:16 15,9 C 18,9 C 13,9 C 81 % 0 lf 1020,7 hPa 0,0 l/m 0 min 0 min 92 W/m 16,7 km/h (3 Bft) 95,74 %
17.12.2015 14:18 15,9 C 18,3 C 13,3 C 81 % 0 lf 1020,7 hPa 0,0 l/m 0 min 0 min 96 W/m 18,8 km/h (3 Bft) 97,87 %
17.12.2015 14:20 15,9 C 17,8 C 13,3 C 81 % 0 lf 1020,7 hPa 0,0 l/m 0 min 0 min 91 W/m 20,9 km/h (4 Bft) 97,83 %
17.12.2015 14:22 15,9 C 17,2 C 13,3 C 81 % 0 lf 1020,7 hPa 0,0 l/m 0 min 0 min 90 W/m 18,8 km/h (3 Bft) 95,74 %
17.12.2015 14:24 16,0 C 16,7 C 13,3 C 81 % 0 lf 1020,7 hPa 0,0 l/m 0 min 0 min 89 W/m 14,6 km/h (3 Bft) 97,87 %
17.12.2015 14:26 15,9 C 16,7 C 13,3 C 81 % 0 lf 1020,6 hPa 0,0 l/m 0 min 0 min 84 W/m 23,0 km/h (4 Bft) 91,49 %
17.12.2015 14:28 15,9 C 16,7 C 13,3 C 80 % 0 lf 1020,7 hPa 0,0 l/m 0 min 0 min 79 W/m 14,6 km/h (3 Bft) 97,87 %
17.12.2015 14:30 15,9 C 16,7 C 13,3 C 80 % 0 lf 1020,7 hPa 0,0 l/m 0 min 0 min 75 W/m 14,6 km/h (3 Bft) 97,87 %
17.12.2015 14:32 15,9 C 16,7 C 13,3 C 81 % 0 lf 1020,7 hPa 0,0 l/m 0 min 0 min 71 W/m 14,6 km/h (3 Bft) 93,48 %
17.12.2015 14:34 15,9 C 16,1 C 13,3 C 80 % 0 lf 1020,6 hPa 0,0 l/m 0 min 0 min 68 W/m 14,6 km/h (3 Bft) 93,62 %
17.12.2015 14:36 15,9 C 16,1 C 13,3 C 81 % 0 lf 1020,6 hPa 0,0 l/m 0 min 0 min 69 W/m 18,8 km/h (3 Bft) 95,74 %
17.12.2015 14:38 15,9 C 16,1 C 13,3 C 80 % 0 lf 1020,6 hPa 0,0 l/m 0 min 0 min 68 W/m 18,8 km/h (3 Bft) 93,62 %
17.12.2015 14:40 15,9 C 16,1 C 13,3 C 81 % 0 lf 1020,6 hPa 0,0 l/m 0 min 0 min 67 W/m 14,6 km/h (3 Bft) 93,62 %
17.12.2015 14:42 15,9 C 16,1 C 13,3 C 81 % 0 lf 1020,6 hPa 0,0 l/m 0 min 0 min 70 W/m 16,7 km/h (3 Bft) 95,74 %
17.12.2015 14:44 15,8 C 16,1 C 13,3 C 81 % 0 lf 1020,5 hPa 0,0 l/m 0 min 0 min 76 W/m 23,0 km/h (4 Bft) 91,30 %
17.12.2015 14:46 15,8 C 16,1 C 13,3 C 81 % 0 lf 1020,5 hPa 0,0 l/m 0 min 0 min 80 W/m 18,8 km/h (3 Bft) 95,74 %
17.12.2015 14:48 15,8 C 16,7 C 13,3 C 81 % 0 lf 1020,5 hPa 0,0 l/m 2 min 0 min 84 W/m 14,6 km/h (3 Bft) 95,74 %
17.12.2015 14:50 15,8 C 16,7 C 13,3 C 81 % 0 lf 1020,5 hPa 0,0 l/m 2 min 0 min 85 W/m 16,7 km/h (3 Bft) 95,74 %
17.12.2015 14:52 15,8 C 16,7 C 13,3 C 81 % 0 lf 1020,5 hPa 0,0 l/m 2 min 0 min 82 W/m 14,6 km/h (3 Bft) 95,74 %
17.12.2015 14:54 15,8 C 16,7 C 13,3 C 81 % 0 lf 1020,5 hPa 0,0 l/m 2 min 0 min 83 W/m 23,0 km/h (4 Bft) 93,62 %
17.12.2015 14:56 15,8 C 16,7 C 13,3 C 81 % 0 lf 1020,5 hPa 0,0 l/m 2 min 0 min 84 W/m 16,7 km/h (3 Bft) 93,48 %
17.12.2015 14:58 15,8 C 16,7 C 13,3 C 81 % 0 lf 1020,3 hPa 0,0 l/m 2 min 0 min 86 W/m 14,6 km/h (3 Bft) 93,62 %
17.12.2015 15:00 15,8 C 16,7 C 13,3 C 81 % 0 lf 1020,4 hPa 0,0 l/m 2 min 0 min 85 W/m 20,9 km/h (4 Bft) 93,62 %
17.12.2015 15:02 15,8 C 16,7 C 13,3 C 81 % 0 lf 1020,3 hPa 0,0 l/m 2 min 0 min 81 W/m 20,9 km/h (4 Bft) 93,62 %
17.12.2015 15:04 15,7 C 16,7 C 13,3 C 81 % 0 lf 1020,3 hPa 0,0 l/m 2 min 0 min 80 W/m 16,7 km/h (3 Bft) 97,87 %
17.12.2015 15:06 15,8 C 16,7 C 13,3 C 81 % 0 lf 1020,3 hPa 0,0 l/m 2 min 0 min 74 W/m 14,6 km/h (3 Bft) 97,87 %
17.12.2015 15:08 15,7 C 16,1 C 13,3 C 81 % 0 lf 1020,3 hPa 0,0 l/m 2 min 0 min 70 W/m 16,7 km/h (3 Bft) 97,83 %
17.12.2015 15:10 15,7 C 16,1 C 13,3 C 81 % 0 lf 1020,2 hPa 0,0 l/m 2 min 0 min 68 W/m 14,6 km/h (3 Bft) 97,87 %
17.12.2015 15:12 15,7 C 16,1 C 13,3 C 81 % 0 lf 1020,2 hPa 0,0 l/m 2 min 0 min 66 W/m 16,7 km/h (3 Bft) 97,87 %
17.12.2015 15:14 15,7 C 16,1 C 13,3 C 81 % 0 lf 1020,2 hPa 0,0 l/m 2 min 0 min 64 W/m 12,6 km/h (3 Bft) 93,62 %
17.12.2015 15:16 15,7 C 16,1 C 13,3 C 81 % 0 lf 1020,1 hPa 0,0 l/m 2 min 0 min 62 W/m 16,7 km/h (3 Bft) 95,74 %
17.12.2015 15:18 15,7 C 16,1 C 13,3 C 81 % 0 lf 1020,1 hPa 0,0 l/m 2 min 0 min 61 W/m 14,6 km/h (3 Bft) 95,65 %
17.12.2015 15:20 15,7 C 16,1 C 12,8 C 81 % 0 lf 1020,1 hPa 0,0 l/m 0 min 0 min 57 W/m 12,6 km/h (3 Bft) 97,87 %
17.12.2015 15:22 15,7 C 15,6 C 13,3 C 81 % 0 lf 1020,1 hPa 0,0 l/m 0 min 0 min 55 W/m 23,0 km/h (4 Bft) 95,74 %
17.12.2015 15:24 15,7 C 16,1 C 13,3 C 81 % 0 lf 1020,1 hPa 0,0 l/m 0 min 0 min 54 W/m 16,7 km/h (3 Bft) 93,62 %
17.12.2015 15:26 15,7 C 15,6 C 13,3 C 81 % 0 lf 1020,1 hPa 0,0 l/m 0 min 0 min 52 W/m 12,6 km/h (3 Bft) 93,62 %
17.12.2015 15:28 15,6 C 15,6 C 13,3 C 81 % 0 lf 1020,1 hPa 0,0 l/m 0 min 0 min 49 W/m 10,5 km/h (2 Bft) 95,74 %
17.12.2015 15:30 15,6 C 15,6 C 12,8 C 81 % 0 lf 1020,1 hPa 0,0 l/m 0 min 0 min 46 W/m 16,7 km/h (3 Bft) 91,30 %
17.12.2015 15:32 15,6 C 15,6 C 12,8 C 82 % 0 lf 1020,1 hPa 0,0 l/m 0 min 0 min 45 W/m 12,6 km/h (3 Bft) 97,87 %
17.12.2015 15:34 15,6 C 15,6 C 13,3 C 82 % 0 lf 1020,1 hPa 0,0 l/m 0 min 0 min 42 W/m 14,6 km/h (3 Bft) 93,62 %
17.12.2015 15:36 15,6 C 15,6 C 13,3 C 82 % 0 lf 1020,1 hPa 0,0 l/m 0 min 0 min 41 W/m 10,5 km/h (2 Bft) 97,87 %
17.12.2015 15:38 15,6 C 15,6 C 13,3 C 82 % 0 lf 1020,1 hPa 0,0 l/m 0 min 0 min 39 W/m 8,4 km/h (2 Bft) 97,87 %
17.12.2015 15:40 15,6 C 15,6 C 12,8 C 82 % 0 lf 1020,1 hPa 0,0 l/m 0 min 0 min 37 W/m 12,6 km/h (3 Bft) 100,00 %
17.12.2015 15:42 15,5 C 15,6 C 12,8 C 82 % 0 lf 1020,1 hPa 0,0 l/m 0 min 0 min 37 W/m 10,5 km/h (2 Bft) 93,48 %
17.12.2015 15:44 15,5 C 15,6 C 12,8 C 82 % 0 lf 1020,1 hPa 0,0 l/m 0 min 0 min 35 W/m 6,3 km/h (2 Bft) 95,74 %
17.12.2015 15:46 15,5 C 15,6 C 12,8 C 82 % 0 lf 1020,1 hPa 0,0 l/m 0 min 0 min 34 W/m 14,6 km/h (3 Bft) 93,62 %
17.12.2015 15:48 15,4 C 15,6 C 12,8 C 82 % 0 lf 1020,1 hPa 0,0 l/m 2 min 0 min 33 W/m 14,6 km/h (3 Bft) 95,74 %
17.12.2015 15:50 15,4 C 15,6 C 12,8 C 82 % 0 lf 1020,1 hPa 0,0 l/m 2 min 0 min 32 W/m 10,5 km/h (2 Bft) 93,62 %
17.12.2015 15:52 15,4 C 15,6 C 12,8 C 82 % 0 lf 1020,1 hPa 0,0 l/m 2 min 0 min 29 W/m 10,5 km/h (2 Bft) 95,74 %
17.12.2015 15:54 15,4 C 15,6 C 12,8 C 82 % 0 lf 1020,1 hPa 0,0 l/m 2 min 0 min 27 W/m 10,5 km/h (2 Bft) 95,65 %
17.12.2015 15:56 15,4 C 15,6 C 12,8 C 83 % 0 lf 1020,0 hPa 0,0 l/m 2 min 0 min 25 W/m 10,5 km/h (2 Bft) 95,74 %
17.12.2015 15:58 15,4 C 15,6 C 12,8 C 83 % 0 lf 1020,0 hPa 0,0 l/m 2 min 0 min 23 W/m 16,7 km/h (3 Bft) 95,74 %
17.12.2015 16:00 15,4 C 15,6 C 12,8 C 83 % 0 lf 1020,0 hPa 0,0 l/m 2 min 0 min 22 W/m 12,6 km/h (3 Bft) 97,87 %
17.12.2015 16:02 15,4 C 15,6 C 12,8 C 83 % 0 lf 1020,0 hPa 0,0 l/m 2 min 0 min 20 W/m 10,5 km/h (2 Bft) 97,87 %
17.12.2015 16:04 15,3 C 15,6 C 12,8 C 83 % 0 lf 1020,0 hPa 0,0 l/m 0 min 0 min 18 W/m 12,6 km/h (3 Bft) 93,62 %
17.12.2015 16:06 15,3 C 15,0 C 12,8 C 83 % 0 lf 1020,1 hPa 0,0 l/m 0 min 0 min 16 W/m 16,7 km/h (3 Bft) 97,83 %
17.12.2015 16:08 15,3 C 15,0 C 12,8 C 83 % 0 lf 1020,1 hPa 0,0 l/m 0 min 0 min 14 W/m 10,5 km/h (2 Bft) 95,74 %
17.12.2015 16:10 15,3 C 15,0 C 12,8 C 83 % 0 lf 1020,1 hPa 0,0 l/m 0 min 0 min 13 W/m 14,6 km/h (3 Bft) 91,49 %
17.12.2015 16:12 15,3 C 15,0 C 12,8 C 83 % 0 lf 1020,0 hPa 0,0 l/m 0 min 0 min 12 W/m 12,6 km/h (3 Bft) 97,87 %
17.12.2015 16:14 15,2 C 15,0 C 12,8 C 83 % 0 lf 1020,0 hPa 0,0 l/m 0 min 0 min 11 W/m 10,5 km/h (2 Bft) 97,87 %
17.12.2015 16:16 15,2 C 15,0 C 12,8 C 83 % 0 lf 1020,0 hPa 0,0 l/m 0 min 0 min 10 W/m 14,6 km/h (3 Bft) 93,62 %
17.12.2015 16:18 15,2 C 15,0 C 12,8 C 84 % 0 lf 1019,9 hPa 0,0 l/m 0 min 0 min 9 W/m 12,6 km/h (3 Bft) 95,65 %
17.12.2015 16:20 15,2 C 15,0 C 12,8 C 84 % 0 lf 1019,9 hPa 0,0 l/m 0 min 0 min 8 W/m 16,7 km/h (3 Bft) 97,87 %
17.12.2015 16:22 15,2 C 15,0 C 12,8 C 84 % 0 lf 1019,9 hPa 0,0 l/m 0 min 0 min 7 W/m 10,5 km/h (2 Bft) 95,74 %
17.12.2015 16:24 15,2 C 15,0 C 12,8 C 84 % 0 lf 1020,0 hPa 0,0 l/m 0 min 0 min 7 W/m 12,6 km/h (3 Bft) 93,62 %
17.12.2015 16:26 15,1 C 15,0 C 12,8 C 84 % 0 lf 1019,9 hPa 0,0 l/m 0 min 0 min 7 W/m 14,6 km/h (3 Bft) 97,87 %
17.12.2015 16:28 15,2 C 15,0 C 12,8 C 84 % 0 lf 1019,8 hPa 0,0 l/m 0 min 0 min 5 W/m 14,6 km/h (3 Bft) 95,74 %
17.12.2015 16:30 15,1 C 15,0 C 12,8 C 84 % 0 lf 1019,8 hPa 0,0 l/m 0 min 0 min 5 W/m 16,7 km/h (3 Bft) 100,00 %
17.12.2015 16:32 15,1 C 15,0 C 12,8 C 84 % 0 lf 1019,9 hPa 0,0 l/m 0 min 0 min 5 W/m 16,7 km/h (3 Bft) 97,87 %
17.12.2015 16:34 15,1 C 15,0 C 12,8 C 84 % 0 lf 1019,9 hPa 0,0 l/m 0 min 0 min 5 W/m 16,7 km/h (3 Bft) 97,87 %
17.12.2015 16:36 15,1 C 15,0 C 12,8 C 84 % 0 lf 1019,9 hPa 0,0 l/m 0 min 0 min 5 W/m 12,6 km/h (3 Bft) 100,00 %
17.12.2015 16:38 15,1 C 15,0 C 12,8 C 84 % 0 lf 1019,9 hPa 0,0 l/m 0 min 0 min 3 W/m 14,6 km/h (3 Bft) 95,74 %
17.12.2015 16:40 15,1 C 15,0 C 12,8 C 84 % 0 lf 1019,9 hPa 0,0 l/m 0 min 0 min 0 W/m 12,6 km/h (3 Bft) 97,87 %
17.12.2015 16:42 15,1 C 15,0 C 12,8 C 84 % 0 lf 1019,8 hPa 0,0 l/m 0 min 0 min 0 W/m 12,6 km/h (3 Bft) 100,00 %
17.12.2015 16:44 15,1 C 15,0 C 12,8 C 84 % 0 lf 1019,8 hPa 0,0 l/m 0 min 0 min 0 W/m 12,6 km/h (3 Bft) 97,87 %
17.12.2015 16:46 15,1 C 15,0 C 12,8 C 84 % 0 lf 1019,8 hPa 0,0 l/m 0 min 0 min 0 W/m 18,8 km/h (3 Bft) 97,87 %
17.12.2015 16:48 15,1 C 15,0 C 12,8 C 84 % 0 lf 1019,7 hPa 0,0 l/m 0 min 0 min 0 W/m 14,6 km/h (3 Bft) 100,00 %
17.12.2015 16:50 15,1 C 15,0 C 12,8 C 84 % 0 lf 1019,7 hPa 0,0 l/m 0 min 0 min 0 W/m 12,6 km/h (3 Bft) 100,00 %
17.12.2015 16:52 15,1 C 15,0 C 12,8 C 84 % 0 lf 1019,8 hPa 0,0 l/m 0 min 0 min 0 W/m 10,5 km/h (2 Bft) 95,65 %
17.12.2015 16:54 15,1 C 15,0 C 12,8 C 84 % 0 lf 1019,8 hPa 0,0 l/m 0 min 0 min 0 W/m 10,5 km/h (2 Bft) 97,87 %
17.12.2015 16:56 15,1 C 15,0 C 12,8 C 84 % 0 lf 1019,8 hPa 0,0 l/m 0 min 0 min 0 W/m 8,4 km/h (2 Bft) 95,74 %
17.12.2015 16:58 15,1 C 15,0 C 12,8 C 84 % 0 lf 1019,8 hPa 0,0 l/m 0 min 0 min 0 W/m 8,4 km/h (2 Bft) 97,87 %
17.12.2015 17:00 15,1 C 15,0 C 12,8 C 84 % 0 lf 1019,7 hPa 0,0 l/m 0 min 0 min 0 W/m 10,5 km/h (2 Bft) 100,00 %
17.12.2015 17:02 15,1 C 14,4 C 12,8 C 84 % 0 lf 1019,7 hPa 0,0 l/m 0 min 0 min 0 W/m 10,5 km/h (2 Bft) 100,00 %
17.12.2015 17:04 15,1 C 14,4 C 12,2 C 84 % 0 lf 1019,7 hPa 0,0 l/m 0 min 0 min 0 W/m 8,4 km/h (2 Bft) 100,00 %
17.12.2015 17:06 15,1 C 14,4 C 12,2 C 84 % 0 lf 1019,7 hPa 0,0 l/m 0 min 0 min 0 W/m 10,5 km/h (2 Bft) 100,00 %
17.12.2015 17:08 15,0 C 14,4 C 12,2 C 84 % 0 lf 1019,7 hPa 0,0 l/m 0 min 0 min 0 W/m 6,3 km/h (2 Bft) 93,62 %
17.12.2015 17:10 15,0 C 14,4 C 12,2 C 84 % 0 lf 1019,7 hPa 0,0 l/m 0 min 0 min 0 W/m 8,4 km/h (2 Bft) 97,87 %
17.12.2015 17:12 14,9 C 14,4 C 12,2 C 84 % 0 lf 1019,7 hPa 0,0 l/m 0 min 0 min 0 W/m 6,3 km/h (2 Bft) 97,87 %
17.12.2015 17:14 14,9 C 13,9 C 12,2 C 84 % 0 lf 1019,8 hPa 0,0 l/m 0 min 0 min 0 W/m 8,4 km/h (2 Bft) 97,87 %
17.12.2015 17:16 14,9 C 13,9 C 11,7 C 84 % 0 lf 1019,8 hPa 0,0 l/m 0 min 0 min 0 W/m 8,4 km/h (2 Bft) 95,65 %
17.12.2015 17:18 14,9 C 13,9 C 11,7 C 84 % 0 lf 1019,8 hPa 0,0 l/m 0 min 0 min 0 W/m 6,3 km/h (2 Bft) 100,00 %
17.12.2015 17:20 14,8 C 13,9 C 11,7 C 84 % 0 lf 1019,8 hPa 0,0 l/m 0 min 0 min 0 W/m 6,3 km/h (2 Bft) 97,87 %
17.12.2015 17:22 14,8 C 13,9 C 11,7 C 85 % 0 lf 1019,8 hPa 0,0 l/m 0 min 0 min 0 W/m 6,3 km/h (2 Bft) 100,00 %
17.12.2015 17:24 14,8 C 13,9 C 11,7 C 85 % 0 lf 1019,8 hPa 0,0 l/m 0 min 0 min 0 W/m 6,3 km/h (2 Bft) 97,87 %
17.12.2015 17:26 14,8 C 13,9 C 11,7 C 85 % 0 lf 1019,8 hPa 0,0 l/m 0 min 0 min 0 W/m 6,3 km/h (2 Bft) 95,74 %
17.12.2015 17:28 14,7 C 13,9 C 11,1 C 85 % 0 lf 1019,8 hPa 0,0 l/m 0 min 0 min 0 W/m 6,3 km/h (2 Bft) 97,83 %
17.12.2015 17:30 14,7 C 13,9 C 11,1 C 85 % 0 lf 1019,8 hPa 0,0 l/m 0 min 0 min 0 W/m 8,4 km/h (2 Bft) 95,74 %
17.12.2015 17:32 14,7 C 13,9 C 11,1 C 85 % 0 lf 1019,8 hPa 0,0 l/m 0 min 0 min 0 W/m 6,3 km/h (2 Bft) 97,87 %
17.12.2015 17:34 14,6 C 13,9 C 11,1 C 85 % 0 lf 1019,7 hPa 0,0 l/m 0 min 0 min 0 W/m 8,4 km/h (2 Bft) 96,00 %
17.12.2015 17:36 14,6 C 13,9 C 11,1 C 85 % 0 lf 1019,8 hPa 0,0 l/m 0 min 0 min 0 W/m 6,3 km/h (2 Bft) 95,74 %
17.12.2015 17:38 14,5 C 13,9 C 11,7 C 85 % 0 lf 1019,7 hPa 0,0 l/m 0 min 0 min 0 W/m 8,4 km/h (2 Bft) 97,83 %
17.12.2015 17:40 14,5 C 13,9 C 11,7 C 85 % 0 lf 1019,8 hPa 0,0 l/m 0 min 0 min 0 W/m 8,4 km/h (2 Bft) 91,49 %
17.12.2015 17:42 14,4 C 13,9 C 11,1 C 85 % 0 lf 1019,8 hPa 0,0 l/m 0 min 0 min 0 W/m 10,5 km/h (2 Bft) 91,49 %
17.12.2015 17:44 14,4 C 13,3 C 11,1 C 85 % 0 lf 1019,7 hPa 0,0 l/m 0 min 0 min 0 W/m 10,5 km/h (2 Bft) 91,49 %
17.12.2015 17:46 14,3 C 13,3 C 11,7 C 85 % 0 lf 1019,7 hPa 0,0 l/m 0 min 0 min 0 W/m 8,4 km/h (2 Bft) 91,49 %
17.12.2015 17:48 14,3 C 13,3 C 11,1 C 86 % 0 lf 1019,7 hPa 0,0 l/m 0 min 0 min 0 W/m 10,5 km/h (2 Bft) 91,49 %
17.12.2015 17:50 14,2 C 13,9 C 11,1 C 86 % 0 lf 1019,6 hPa 0,0 l/m 0 min 0 min 0 W/m 10,5 km/h (2 Bft) 89,13 %
17.12.2015 17:52 14,2 C 13,9 C 11,1 C 86 % 0 lf 1019,6 hPa 0,0 l/m 0 min 0 min 0 W/m 6,3 km/h (2 Bft) 93,62 %
17.12.2015 17:54 14,2 C 13,9 C 11,1 C 86 % 0 lf 1019,6 hPa 0,0 l/m 0 min 0 min 0 W/m 6,3 km/h (2 Bft) 89,36 %
17.12.2015 17:56 14,2 C 13,9 C 11,1 C 86 % 0 lf 1019,6 hPa 0,0 l/m 0 min 0 min 0 W/m 6,3 km/h (2 Bft) 91,49 %
17.12.2015 17:58 14,2 C 13,9 C 11,1 C 86 % 0 lf 1019,5 hPa 0,0 l/m 0 min 0 min 0 W/m 6,3 km/h (2 Bft) 95,74 %
17.12.2015 18:00 14,2 C 13,9 C 11,1 C 87 % 0 lf 1019,7 hPa 0,0 l/m 0 min 0 min 0 W/m 6,3 km/h (2 Bft) 97,87 %
17.12.2015 18:02 14,2 C 13,9 C 11,1 C 87 % 0 lf 1019,5 hPa 0,0 l/m 0 min 0 min 0 W/m 8,4 km/h (2 Bft) 97,83 %
17.12.2015 18:06 14,2 C 13,9 C 11,1 C 87 % 0 lf 1019,7 hPa 0,0 l/m 0 min 0 min 0 W/m 8,4 km/h (2 Bft) 92,55 %
17.12.2015 18:08 14,1 C 13,9 C 11,1 C 87 % 0 lf 1019,6 hPa 0,0 l/m 0 min 0 min 0 W/m 8,4 km/h (2 Bft) 93,62 %
17.12.2015 18:10 14,1 C 13,9 C 11,1 C 87 % 0 lf 1019,6 hPa 0,0 l/m 0 min 0 min 0 W/m 6,3 km/h (2 Bft) 93,62 %
17.12.2015 18:12 14,0 C 13,9 C 11,1 C 87 % 0 lf 1019,7 hPa 0,0 l/m 0 min 0 min 0 W/m 10,5 km/h (2 Bft) 93,62 %
17.12.2015 18:14 14,0 C 13,9 C 11,1 C 87 % 0 lf 1019,7 hPa 0,0 l/m 0 min 0 min 0 W/m 12,6 km/h (3 Bft) 95,65 %
17.12.2015 18:16 13,9 C 13,9 C 11,1 C 88 % 0 lf 1019,8 hPa 0,0 l/m 0 min 0 min 0 W/m 10,5 km/h (2 Bft) 93,62 %
17.12.2015 18:18 13,9 C 13,9 C 11,1 C 88 % 0 lf 1019,7 hPa 0,0 l/m 0 min 0 min 0 W/m 10,5 km/h (2 Bft) 95,74 %
17.12.2015 18:20 13,9 C 13,9 C 11,7 C 88 % 0 lf 1019,7 hPa 0,0 l/m 0 min 0 min 0 W/m 12,6 km/h (3 Bft) 91,49 %
17.12.2015 18:22 13,9 C 14,4 C 11,7 C 88 % 0 lf 1019,7 hPa 0,0 l/m 0 min 0 min 0 W/m 10,5 km/h (2 Bft) 93,62 %
17.12.2015 18:24 13,9 C 14,4 C 11,7 C 88 % 0 lf 1019,8 hPa 0,0 l/m 0 min 0 min 0 W/m 6,3 km/h (2 Bft) 95,74 %
17.12.2015 18:26 13,9 C 13,9 C 11,7 C 88 % 0 lf 1019,8 hPa 0,0 l/m 0 min 0 min 0 W/m 10,5 km/h (2 Bft) 95,65 %
17.12.2015 18:28 13,9 C 14,4 C 11,7 C 88 % 0 lf 1019,8 hPa 0,0 l/m 0 min 0 min 0 W/m 14,6 km/h (3 Bft) 97,87 %
17.12.2015 18:30 13,9 C 14,4 C 11,7 C 88 % 0 lf 1019,8 hPa 0,0 l/m 0 min 0 min 0 W/m 14,6 km/h (3 Bft) 97,87 %
17.12.2015 18:32 13,9 C 14,4 C 12,2 C 88 % 0 lf 1019,7 hPa 0,0 l/m 0 min 0 min 0 W/m 14,6 km/h (3 Bft) 97,87 %
17.12.2015 18:34 14,0 C 14,4 C 12,2 C 88 % 0 lf 1019,7 hPa 0,0 l/m 0 min 0 min 0 W/m 14,6 km/h (3 Bft) 91,49 %
17.12.2015 18:36 14,0 C 15,0 C 12,2 C 89 % 0 lf 1019,8 hPa 0,0 l/m 0 min 0 min 0 W/m 16,7 km/h (3 Bft) 95,65 %
17.12.2015 18:38 14,1 C 15,0 C 12,2 C 89 % 0 lf 1019,6 hPa 0,0 l/m 0 min 0 min 0 W/m 14,6 km/h (3 Bft) 91,49 %
17.12.2015 18:40 14,1 C 15,0 C 12,2 C 88 % 0 lf 1019,7 hPa 0,0 l/m 0 min 0 min 0 W/m 12,6 km/h (3 Bft) 95,74 %
17.12.2015 18:42 14,2 C 15,0 C 12,2 C 88 % 0 lf 1019,8 hPa 0,0 l/m 0 min 0 min 0 W/m 16,7 km/h (3 Bft) 91,49 %
17.12.2015 18:44 14,2 C 14,4 C 12,2 C 88 % 0 lf 1019,8 hPa 0,0 l/m 0 min 0 min 0 W/m 8,4 km/h (2 Bft) 97,87 %
17.12.2015 18:46 14,2 C 14,4 C 12,2 C 88 % 0 lf 1019,8 hPa 0,0 l/m 0 min 0 min 0 W/m 10,5 km/h (2 Bft) 97,87 %
17.12.2015 18:48 14,2 C 14,4 C 12,2 C 88 % 0 lf 1019,7 hPa 0,0 l/m 0 min 0 min 0 W/m 10,5 km/h (2 Bft) 93,48 %
17.12.2015 18:50 14,2 C 14,4 C 12,2 C 88 % 0 lf 1019,7 hPa 0,0 l/m 0 min 0 min 0 W/m 12,6 km/h (3 Bft) 97,87 %
17.12.2015 18:52 14,2 C 14,4 C 12,2 C 88 % 0 lf 1019,7 hPa 0,0 l/m 0 min 0 min 0 W/m 14,6 km/h (3 Bft) 97,87 %
17.12.2015 18:54 14,2 C 14,4 C 12,2 C 87 % 0 lf 1019,7 hPa 0,0 l/m 0 min 0 min 0 W/m 12,6 km/h (3 Bft) 95,74 %
17.12.2015 18:56 14,2 C 15,0 C 12,2 C 87 % 0 lf 1019,7 hPa 0,0 l/m 0 min 0 min 0 W/m 14,6 km/h (3 Bft) 97,87 %
17.12.2015 18:58 14,2 C 14,4 C 12,2 C 87 % 0 lf 1019,7 hPa 0,0 l/m 0 min 0 min 0 W/m 10,5 km/h (2 Bft) 95,74 %
17.12.2015 19:00 14,2 C 14,4 C 12,2 C 87 % 0 lf 1019,6 hPa 0,0 l/m 0 min 0 min 0 W/m 10,5 km/h (2 Bft) 95,65 %
17.12.2015 19:02 14,2 C 14,4 C 12,2 C 87 % 0 lf 1019,6 hPa 0,0 l/m 0 min 0 min 0 W/m 8,4 km/h (2 Bft) 95,74 %
17.12.2015 19:04 14,3 C 14,4 C 12,2 C 87 % 0 lf 1019,6 hPa 0,0 l/m 0 min 0 min 0 W/m 14,6 km/h (3 Bft) 93,62 %
17.12.2015 19:06 14,3 C 14,4 C 12,2 C 87 % 0 lf 1019,5 hPa 0,0 l/m 0 min 0 min 0 W/m 14,6 km/h (3 Bft) 95,74 %
17.12.2015 19:08 14,3 C 14,4 C 12,2 C 87 % 0 lf 1019,5 hPa 0,0 l/m 0 min 0 min 0 W/m 14,6 km/h (3 Bft) 93,62 %
17.12.2015 19:10 14,3 C 15,0 C 12,2 C 87 % 0 lf 1019,5 hPa 0,0 l/m 0 min 0 min 0 W/m 10,5 km/h (2 Bft) 91,49 %
17.12.2015 19:12 14,3 C 15,0 C 12,2 C 86 % 0 lf 1019,4 hPa 0,0 l/m 0 min 0 min 0 W/m 14,6 km/h (3 Bft) 95,65 %
17.12.2015 19:14 14,3 C 14,4 C 12,2 C 86 % 0 lf 1019,5 hPa 0,0 l/m 0 min 0 min 0 W/m 16,7 km/h (3 Bft) 97,87 %
17.12.2015 19:16 14,4 C 14,4 C 12,2 C 86 % 0 lf 1019,5 hPa 0,0 l/m 0 min 0 min 0 W/m 10,5 km/h (2 Bft) 91,49 %
17.12.2015 19:18 14,4 C 14,4 C 12,2 C 86 % 0 lf 1019,5 hPa 0,0 l/m 0 min 0 min 0 W/m 10,5 km/h (2 Bft) 95,74 %
17.12.2015 19:20 14,4 C 14,4 C 12,2 C 86 % 0 lf 1019,4 hPa 0,0 l/m 0 min 0 min 0 W/m 23,0 km/h (4 Bft) 97,87 %
17.12.2015 19:22 14,4 C 15,0 C 12,2 C 86 % 0 lf 1019,4 hPa 0,0 l/m 0 min 0 min 0 W/m 14,6 km/h (3 Bft) 95,74 %
17.12.2015 19:24 14,4 C 15,0 C 12,8 C 86 % 0 lf 1019,4 hPa 0,0 l/m 0 min 0 min 0 W/m 20,9 km/h (4 Bft) 97,83 %
17.12.2015 19:26 14,4 C 15,0 C 12,8 C 86 % 0 lf 1019,5 hPa 0,0 l/m 0 min 0 min 0 W/m 16,7 km/h (3 Bft) 97,87 %
17.12.2015 19:28 14,4 C 15,0 C 12,8 C 86 % 0 lf 1019,5 hPa 0,0 l/m 0 min 0 min 0 W/m 14,6 km/h (3 Bft) 95,74 %
17.12.2015 19:30 14,5 C 15,0 C 12,8 C 86 % 0 lf 1019,4 hPa 0,0 l/m 0 min 0 min 0 W/m 14,6 km/h (3 Bft) 95,74 %
17.12.2015 19:32 14,5 C 15,0 C 12,8 C 86 % 0 lf 1019,4 hPa 0,0 l/m 0 min 0 min 0 W/m 16,7 km/h (3 Bft) 93,62 %
17.12.2015 19:34 14,5 C 15,0 C 12,8 C 85 % 0 lf 1019,4 hPa 0,0 l/m 0 min 0 min 0 W/m 10,5 km/h (2 Bft) 97,87 %
17.12.2015 19:36 14,6 C 15,0 C 12,8 C 85 % 0 lf 1019,4 hPa 0,0 l/m 0 min 0 min 0 W/m 25,1 km/h (4 Bft) 95,65 %
17.12.2015 19:38 14,6 C 15,0 C 12,8 C 85 % 0 lf 1019,2 hPa 0,0 l/m 0 min 0 min 0 W/m 16,7 km/h (3 Bft) 97,87 %
17.12.2015 19:40 14,6 C 15,0 C 12,8 C 85 % 0 lf 1019,1 hPa 0,0 l/m 0 min 0 min 0 W/m 14,6 km/h (3 Bft) 97,87 %
17.12.2015 19:42 14,6 C 15,0 C 12,8 C 85 % 0 lf 1019,0 hPa 0,0 l/m 0 min 0 min 0 W/m 12,6 km/h (3 Bft) 95,74 %
17.12.2015 19:44 14,7 C 15,0 C 12,8 C 85 % 0 lf 1019,0 hPa 0,0 l/m 0 min 0 min 0 W/m 10,5 km/h (2 Bft) 93,62 %
17.12.2015 19:46 14,7 C 15,0 C 12,8 C 85 % 0 lf 1019,1 hPa 0,0 l/m 0 min 0 min 0 W/m 12,6 km/h (3 Bft) 97,83 %
17.12.2015 19:48 14,7 C 14,4 C 12,8 C 85 % 0 lf 1019,2 hPa 0,0 l/m 0 min 0 min 0 W/m 8,4 km/h (2 Bft) 97,87 %
17.12.2015 19:50 14,7 C 14,4 C 12,2 C 85 % 0 lf 1019,4 hPa 0,0 l/m 0 min 0 min 0 W/m 10,5 km/h (2 Bft) 95,74 %
17.12.2015 19:52 14,7 C 14,4 C 12,2 C 84 % 0 lf 1019,4 hPa 0,0 l/m 0 min 0 min 0 W/m 6,3 km/h (2 Bft) 95,74 %
17.12.2015 19:54 14,7 C 14,4 C 12,2 C 84 % 0 lf 1019,4 hPa 0,0 l/m 0 min 0 min 0 W/m 6,3 km/h (2 Bft) 100,00 %
17.12.2015 19:56 14,7 C 14,4 C 12,2 C 85 % 0 lf 1019,3 hPa 0,0 l/m 0 min 0 min 0 W/m 8,4 km/h (2 Bft) 97,87 %
17.12.2015 19:58 14,7 C 14,4 C 12,2 C 85 % 0 lf 1019,2 hPa 0,0 l/m 0 min 0 min 0 W/m 10,5 km/h (2 Bft) 100,00 %
17.12.2015 20:00 14,7 C 14,4 C 11,7 C 85 % 0 lf 1019,1 hPa 0,0 l/m 0 min 0 min 0 W/m 8,4 km/h (2 Bft) 100,00 %
17.12.2015 20:02 14,7 C 13,9 C 11,7 C 84 % 0 lf 1019,2 hPa 0,0 l/m 0 min 0 min 0 W/m 8,4 km/h (2 Bft) 100,00 %
17.12.2015 20:04 14,6 C 13,9 C 11,7 C 84 % 0 lf 1019,2 hPa 0,0 l/m 0 min 0 min 0 W/m 6,3 km/h (2 Bft) 100,00 %
17.12.2015 20:06 14,6 C 13,9 C 11,7 C 84 % 0 lf 1019,2 hPa 0,0 l/m 0 min 0 min 0 W/m 8,4 km/h (2 Bft) 97,87 %
17.12.2015 20:08 14,6 C 13,9 C 11,7 C 84 % 0 lf 1019,0 hPa 0,0 l/m 0 min 0 min 0 W/m 8,4 km/h (2 Bft) 97,87 %
17.12.2015 20:10 14,6 C 13,9 C 11,7 C 84 % 0 lf 1019,0 hPa 0,0 l/m 0 min 0 min 0 W/m 6,3 km/h (2 Bft) 100,00 %
17.12.2015 20:12 14,5 C 13,9 C 11,7 C 85 % 0 lf 1019,0 hPa 0,0 l/m 0 min 0 min 0 W/m 8,4 km/h (2 Bft) 95,74 %
17.12.2015 20:14 14,5 C 13,9 C 11,7 C 85 % 0 lf 1019,0 hPa 0,0 l/m 0 min 0 min 0 W/m 10,5 km/h (2 Bft) 100,00 %
17.12.2015 20:16 14,4 C 13,9 C 11,7 C 85 % 0 lf 1019,0 hPa 0,0 l/m 0 min 0 min 0 W/m 10,5 km/h (2 Bft) 97,87 %
17.12.2015 20:18 14,4 C 13,9 C 11,7 C 85 % 0 lf 1019,0 hPa 0,0 l/m 0 min 0 min 0 W/m 10,5 km/h (2 Bft) 97,87 %
17.12.2015 20:20 14,4 C 13,9 C 11,7 C 85 % 0 lf 1019,0 hPa 0,0 l/m 0 min 0 min 0 W/m 12,6 km/h (3 Bft) 95,74 %
17.12.2015 20:22 14,3 C 13,9 C 11,7 C 85 % 0 lf 1018,9 hPa 0,0 l/m 0 min 0 min 0 W/m 8,4 km/h (2 Bft) 100,00 %
17.12.2015 20:24 14,3 C 13,9 C 11,7 C 85 % 0 lf 1018,9 hPa 0,0 l/m 0 min 0 min 0 W/m 8,4 km/h (2 Bft) 95,74 %
17.12.2015 20:26 14,2 C 13,9 C 11,7 C 85 % 0 lf 1018,9 hPa 0,0 l/m 0 min 0 min 0 W/m 10,5 km/h (2 Bft) 95,74 %
17.12.2015 20:28 14,2 C 13,9 C 11,7 C 85 % 0 lf 1018,9 hPa 0,0 l/m 0 min 0 min 0 W/m 14,6 km/h (3 Bft) 100,00 %
17.12.2015 20:30 14,2 C 13,9 C 11,7 C 85 % 0 lf 1018,9 hPa 0,0 l/m 0 min 0 min 0 W/m 8,4 km/h (2 Bft) 97,87 %
17.12.2015 20:32 14,2 C 13,9 C 11,7 C 85 % 0 lf 1018,9 hPa 0,0 l/m 0 min 0 min 0 W/m 10,5 km/h (2 Bft) 95,74 %
17.12.2015 20:34 14,2 C 13,9 C 11,7 C 86 % 0 lf 1018,9 hPa 0,0 l/m 0 min 0 min 0 W/m 10,5 km/h (2 Bft) 97,83 %
17.12.2015 20:36 14,2 C 13,9 C 11,1 C 86 % 0 lf 1018,9 hPa 0,0 l/m 0 min 0 min 0 W/m 10,5 km/h (2 Bft) 95,74 %
17.12.2015 20:38 14,2 C 13,9 C 11,7 C 86 % 0 lf 1018,9 hPa 0,0 l/m 0 min 0 min 0 W/m 8,4 km/h (2 Bft) 95,74 %
17.12.2015 20:40 14,1 C 13,9 C 11,7 C 86 % 0 lf 1018,9 hPa 0,0 l/m 0 min 0 min 0 W/m 8,4 km/h (2 Bft) 97,87 %
17.12.2015 20:42 14,1 C 13,3 C 11,1 C 86 % 0 lf 1018,8 hPa 0,0 l/m 0 min 0 min 0 W/m 10,5 km/h (2 Bft) 97,87 %
17.12.2015 20:44 14,0 C 13,3 C 11,1 C 86 % 0 lf 1018,8 hPa 0,0 l/m 0 min 0 min 0 W/m 8,4 km/h (2 Bft) 97,87 %
17.12.2015 20:46 13,9 C 13,9 C 11,1 C 86 % 0 lf 1018,8 hPa 0,0 l/m 0 min 0 min 0 W/m 10,5 km/h (2 Bft) 97,83 %
17.12.2015 20:48 13,9 C 13,3 C 11,7 C 86 % 0 lf 1018,7 hPa 0,0 l/m 0 min 0 min 0 W/m 12,6 km/h (3 Bft) 97,87 %
17.12.2015 20:50 13,9 C 13,3 C 11,1 C 86 % 0 lf 1018,7 hPa 0,0 l/m 0 min 0 min 0 W/m 10,5 km/h (2 Bft) 97,87 %
17.12.2015 20:52 13,8 C 13,3 C 11,7 C 86 % 0 lf 1018,7 hPa 0,0 l/m 0 min 0 min 0 W/m 10,5 km/h (2 Bft) 97,87 %
17.12.2015 20:54 13,8 C 13,3 C 11,1 C 87 % 0 lf 1018,7 hPa 0,0 l/m 0 min 0 min 0 W/m 10,5 km/h (2 Bft) 97,87 %
17.12.2015 20:56 13,8 C 13,3 C 11,1 C 87 % 0 lf 1018,7 hPa 0,0 l/m 0 min 0 min 0 W/m 12,6 km/h (3 Bft) 89,36 %
17.12.2015 20:58 13,8 C 13,3 C 11,7 C 87 % 0 lf 1018,7 hPa 0,0 l/m 0 min 0 min 0 W/m 14,6 km/h (3 Bft) 97,83 %
17.12.2015 21:00 13,7 C 13,3 C 11,1 C 87 % 0 lf 1018,7 hPa 0,0 l/m 0 min 0 min 0 W/m 10,5 km/h (2 Bft) 100,00 %
17.12.2015 21:02 13,7 C 13,3 C 11,1 C 87 % 0 lf 1018,6 hPa 0,0 l/m 0 min 0 min 0 W/m 14,6 km/h (3 Bft) 93,62 %
17.12.2015 21:04 13,7 C 13,3 C 11,1 C 87 % 0 lf 1018,6 hPa 0,0 l/m 0 min 0 min 0 W/m 8,4 km/h (2 Bft) 97,87 %
17.12.2015 21:06 13,7 C 13,3 C 11,1 C 87 % 0 lf 1018,7 hPa 0,0 l/m 0 min 0 min 0 W/m 8,4 km/h (2 Bft) 97,87 %
17.12.2015 21:08 13,6 C 13,3 C 11,7 C 87 % 0 lf 1018,6 hPa 0,0 l/m 0 min 0 min 0 W/m 10,5 km/h (2 Bft) 93,48 %
17.12.2015 21:10 13,6 C 13,3 C 11,1 C 87 % 0 lf 1018,7 hPa 0,0 l/m 0 min 0 min 0 W/m 8,4 km/h (2 Bft) 95,74 %
17.12.2015 21:12 13,6 C 13,3 C 11,1 C 87 % 0 lf 1018,7 hPa 0,0 l/m 0 min 0 min 0 W/m 10,5 km/h (2 Bft) 97,87 %
17.12.2015 21:14 13,6 C 13,3 C 11,1 C 87 % 0 lf 1018,7 hPa 0,0 l/m 0 min 0 min 0 W/m 12,6 km/h (3 Bft) 95,74 %
17.12.2015 21:16 13,6 C 13,3 C 11,1 C 88 % 0 lf 1018,7 hPa 0,0 l/m 0 min 0 min 0 W/m 10,5 km/h (2 Bft) 95,74 %
17.12.2015 21:18 13,5 C 13,3 C 11,7 C 88 % 0 lf 1018,7 hPa 0,0 l/m 0 min 0 min 0 W/m 14,6 km/h (3 Bft) 95,74 %
17.12.2015 21:20 13,5 C 13,3 C 11,7 C 88 % 0 lf 1018,7 hPa 0,0 l/m 0 min 0 min 0 W/m 10,5 km/h (2 Bft) 97,83 %
17.12.2015 21:22 13,4 C 13,3 C 11,1 C 88 % 0 lf 1018,7 hPa 0,0 l/m 0 min 0 min 0 W/m 12,6 km/h (3 Bft) 95,74 %
17.12.2015 21:24 13,4 C 13,3 C 11,1 C 88 % 0 lf 1018,6 hPa 0,0 l/m 0 min 0 min 0 W/m 10,5 km/h (2 Bft) 95,74 %
17.12.2015 21:26 13,4 C 13,3 C 11,1 C 88 % 0 lf 1018,6 hPa 0,0 l/m 0 min 0 min 0 W/m 12,6 km/h (3 Bft) 93,62 %
17.12.2015 21:28 13,4 C 13,3 C 11,1 C 88 % 0 lf 1018,5 hPa 0,0 l/m 0 min 0 min 0 W/m 14,6 km/h (3 Bft) 93,62 %
17.12.2015 21:30 13,4 C 12,8 C 11,1 C 88 % 0 lf 1018,5 hPa 0,0 l/m 0 min 0 min 0 W/m 12,6 km/h (3 Bft) 91,49 %
17.12.2015 21:32 13,4 C 12,8 C 11,1 C 88 % 0 lf 1018,5 hPa 0,0 l/m 0 min 0 min 0 W/m 8,4 km/h (2 Bft) 91,30 %
17.12.2015 21:34 13,3 C 12,8 C 11,1 C 88 % 0 lf 1018,5 hPa 0,0 l/m 0 min 0 min 0 W/m 10,5 km/h (2 Bft) 93,62 %
17.12.2015 21:36 13,3 C 12,8 C 11,1 C 88 % 0 lf 1018,5 hPa 0,0 l/m 0 min 0 min 0 W/m 12,6 km/h (3 Bft) 91,49 %
17.12.2015 21:38 13,3 C 12,8 C 11,1 C 89 % 0 lf 1018,5 hPa 0,0 l/m 0 min 0 min 0 W/m 10,5 km/h (2 Bft) 91,49 %
17.12.2015 21:40 13,3 C 12,8 C 11,1 C 89 % 0 lf 1018,5 hPa 0,0 l/m 0 min 0 min 0 W/m 12,6 km/h (3 Bft) 93,62 %
17.12.2015 21:42 13,2 C 12,8 C 11,1 C 89 % 0 lf 1018,5 hPa 0,0 l/m 0 min 0 min 0 W/m 12,6 km/h (3 Bft) 91,49 %
17.12.2015 21:44 13,2 C 12,8 C 11,1 C 89 % 0 lf 1018,5 hPa 0,0 l/m 0 min 0 min 0 W/m 10,5 km/h (2 Bft) 93,48 %
17.12.2015 21:46 13,2 C 12,8 C 10,6 C 89 % 0 lf 1018,5 hPa 0,0 l/m 0 min 0 min 0 W/m 8,4 km/h (2 Bft) 93,62 %
17.12.2015 21:48 13,2 C 12,8 C 10,6 C 89 % 0 lf 1018,6 hPa 0,0 l/m 0 min 0 min 0 W/m 6,3 km/h (2 Bft) 93,62 %
17.12.2015 21:50 13,2 C 12,8 C 10,6 C 89 % 0 lf 1018,5 hPa 0,0 l/m 0 min 0 min 0 W/m 6,3 km/h (2 Bft) 95,74 %
17.12.2015 21:52 13,1 C 12,2 C 10,6 C 89 % 0 lf 1018,5 hPa 0,0 l/m 0 min 0 min 0 W/m 10,5 km/h (2 Bft) 87,23 %
17.12.2015 21:54 13,1 C 12,2 C 10,6 C 89 % 0 lf 1018,5 hPa 0,0 l/m 0 min 0 min 0 W/m 6,3 km/h (2 Bft) 95,74 %
17.12.2015 21:56 13,1 C 12,2 C 10,6 C 89 % 0 lf 1018,5 hPa 0,0 l/m 0 min 0 min 0 W/m 6,3 km/h (2 Bft) 95,65 %
17.12.2015 21:58 13,1 C 12,2 C 10,0 C 89 % 0 lf 1018,5 hPa 0,0 l/m 0 min 0 min 0 W/m 8,4 km/h (2 Bft) 97,87 %
17.12.2015 22:00 13,0 C 12,2 C 10,0 C 89 % 0 lf 1018,5 hPa 0,0 l/m 0 min 0 min 0 W/m 8,4 km/h (2 Bft) 93,62 %
17.12.2015 22:02 13,0 C 12,2 C 10,0 C 89 % 0 lf 1018,4 hPa 0,0 l/m 0 min 0 min 0 W/m 10,5 km/h (2 Bft) 95,74 %
17.12.2015 22:04 12,9 C 12,2 C 10,0 C 89 % 0 lf 1018,4 hPa 0,0 l/m 0 min 0 min 0 W/m 10,5 km/h (2 Bft) 91,49 %
17.12.2015 22:06 12,9 C 12,2 C 10,0 C 89 % 0 lf 1018,3 hPa 0,0 l/m 0 min 0 min 0 W/m 10,5 km/h (2 Bft) 95,74 %
17.12.2015 22:08 12,9 C 12,2 C 10,0 C 89 % 0 lf 1018,3 hPa 0,0 l/m 0 min 0 min 0 W/m 14,6 km/h (3 Bft) 93,48 %
17.12.2015 22:10 12,8 C 12,2 C 10,0 C 89 % 0 lf 1018,3 hPa 0,0 l/m 0 min 0 min 0 W/m 12,6 km/h (3 Bft) 93,62 %
17.12.2015 22:12 12,8 C 12,2 C 10,6 C 89 % 0 lf 1018,3 hPa 0,0 l/m 0 min 0 min 0 W/m 12,6 km/h (3 Bft) 93,62 %
17.12.2015 22:14 12,8 C 12,2 C 10,6 C 90 % 0 lf 1018,3 hPa 0,0 l/m 0 min 0 min 0 W/m 16,7 km/h (3 Bft) 97,87 %
17.12.2015 22:16 12,7 C 12,2 C 10,6 C 90 % 0 lf 1018,3 hPa 0,0 l/m 0 min 0 min 0 W/m 14,6 km/h (3 Bft) 97,87 %
17.12.2015 22:18 12,7 C 12,8 C 10,6 C 90 % 0 lf 1018,3 hPa 0,0 l/m 0 min 0 min 0 W/m 18,8 km/h (3 Bft) 95,65 %
17.12.2015 22:20 12,7 C 12,8 C 10,6 C 90 % 0 lf 1018,4 hPa 0,0 l/m 0 min 0 min 0 W/m 8,4 km/h (2 Bft) 97,87 %
17.12.2015 22:22 12,7 C 12,8 C 10,6 C 90 % 0 lf 1018,4 hPa 0,0 l/m 0 min 0 min 0 W/m 12,6 km/h (3 Bft) 97,87 %
17.12.2015 22:24 12,7 C 12,8 C 10,6 C 91 % 0 lf 1018,4 hPa 0,0 l/m 0 min 0 min 0 W/m 12,6 km/h (3 Bft) 95,74 %
17.12.2015 22:26 12,7 C 12,8 C 11,1 C 91 % 0 lf 1018,3 hPa 0,0 l/m 0 min 0 min 0 W/m 8,4 km/h (2 Bft) 97,87 %
17.12.2015 22:28 12,7 C 12,8 C 11,1 C 91 % 0 lf 1018,2 hPa 0,0 l/m 0 min 0 min 0 W/m 14,6 km/h (3 Bft) 95,74 %
17.12.2015 22:30 12,6 C 12,8 C 11,1 C 91 % 0 lf 1018,3 hPa 0,0 l/m 0 min 0 min 0 W/m 14,6 km/h (3 Bft) 100,00 %
17.12.2015 22:32 12,6 C 12,8 C 11,1 C 91 % 0 lf 1018,3 hPa 0,0 l/m 0 min 0 min 0 W/m 12,6 km/h (3 Bft) 95,74 %
17.12.2015 22:34 12,6 C 12,8 C 11,1 C 91 % 0 lf 1018,3 hPa 0,0 l/m 0 min 0 min 0 W/m 14,6 km/h (3 Bft) 95,74 %
17.12.2015 22:36 12,6 C 12,8 C 11,1 C 91 % 0 lf 1018,2 hPa 0,0 l/m 0 min 0 min 0 W/m 12,6 km/h (3 Bft) 97,87 %
17.12.2015 22:38 12,6 C 12,8 C 11,1 C 92 % 0 lf 1018,3 hPa 0,0 l/m 0 min 0 min 0 W/m 12,6 km/h (3 Bft) 100,00 %
17.12.2015 22:40 12,6 C 12,8 C 11,1 C 92 % 0 lf 1018,3 hPa 0,0 l/m 0 min 0 min 0 W/m 14,6 km/h (3 Bft) 93,62 %
17.12.2015 22:42 12,6 C 12,8 C 11,1 C 92 % 0 lf 1018,3 hPa 0,0 l/m 0 min 0 min 0 W/m 10,5 km/h (2 Bft) 97,83 %
17.12.2015 22:44 12,6 C 12,8 C 11,1 C 92 % 0 lf 1018,2 hPa 0,0 l/m 0 min 0 min 0 W/m 10,5 km/h (2 Bft) 97,87 %
17.12.2015 22:46 12,6 C 12,8 C 11,1 C 92 % 0 lf 1018,2 hPa 0,0 l/m 0 min 0 min 0 W/m 14,6 km/h (3 Bft) 97,87 %
17.12.2015 22:48 12,6 C 12,8 C 11,1 C 92 % 0 lf 1018,2 hPa 0,0 l/m 0 min 0 min 0 W/m 12,6 km/h (3 Bft) 97,87 %
17.12.2015 22:50 12,6 C 12,8 C 11,1 C 92 % 0 lf 1018,2 hPa 0,0 l/m 0 min 0 min 0 W/m 12,6 km/h (3 Bft) 97,87 %
17.12.2015 22:52 12,6 C 12,8 C 11,1 C 92 % 0 lf 1018,2 hPa 0,0 l/m 0 min 0 min 0 W/m 12,6 km/h (3 Bft) 95,74 %
17.12.2015 22:54 12,6 C 12,8 C 11,1 C 92 % 0 lf 1018,2 hPa 0,0 l/m 0 min 0 min 0 W/m 12,6 km/h (3 Bft) 95,65 %
17.12.2015 22:56 12,5 C 12,8 C 11,1 C 92 % 0 lf 1018,3 hPa 0,0 l/m 0 min 0 min 0 W/m 12,6 km/h (3 Bft) 97,87 %
17.12.2015 22:58 12,5 C 12,8 C 11,1 C 92 % 0 lf 1018,2 hPa 0,0 l/m 0 min 0 min 0 W/m 10,5 km/h (2 Bft) 100,00 %
17.12.2015 23:00 12,5 C 12,8 C 11,1 C 92 % 0 lf 1018,2 hPa 0,0 l/m 0 min 0 min 0 W/m 10,5 km/h (2 Bft) 97,87 %
17.12.2015 23:02 12,5 C 12,8 C 11,1 C 92 % 0 lf 1018,3 hPa 0,0 l/m 0 min 0 min 0 W/m 10,5 km/h (2 Bft) 97,87 %
17.12.2015 23:04 12,5 C 12,8 C 11,1 C 92 % 0 lf 1018,3 hPa 0,0 l/m 0 min 0 min 0 W/m 10,5 km/h (2 Bft) 97,87 %
17.12.2015 23:06 12,5 C 12,8 C 11,1 C 92 % 0 lf 1018,3 hPa 0,0 l/m 0 min 0 min 0 W/m 10,5 km/h (2 Bft) 97,83 %
17.12.2015 23:08 12,5 C 12,8 C 11,1 C 92 % 0 lf 1018,3 hPa 0,0 l/m 0 min 0 min 0 W/m 6,3 km/h (2 Bft) 95,74 %
17.12.2015 23:10 12,5 C 12,8 C 11,1 C 92 % 0 lf 1018,3 hPa 0,0 l/m 0 min 0 min 0 W/m 6,3 km/h (2 Bft) 100,00 %
17.12.2015 23:12 12,5 C 12,8 C 11,1 C 92 % 0 lf 1018,4 hPa 0,0 l/m 0 min 0 min 0 W/m 10,5 km/h (2 Bft) 95,74 %
17.12.2015 23:14 12,5 C 12,8 C 11,1 C 92 % 0 lf 1018,3 hPa 0,0 l/m 0 min 0 min 0 W/m 8,4 km/h (2 Bft) 95,74 %
17.12.2015 23:16 12,4 C 12,2 C 11,1 C 92 % 0 lf 1018,4 hPa 0,0 l/m 0 min 0 min 0 W/m 8,4 km/h (2 Bft) 97,87 %
17.12.2015 23:18 12,4 C 12,2 C 11,1 C 92 % 0 lf 1018,3 hPa 0,0 l/m 0 min 0 min 0 W/m 8,4 km/h (2 Bft) 97,83 %
17.12.2015 23:20 12,4 C 12,8 C 11,1 C 93 % 0 lf 1018,3 hPa 0,0 l/m 0 min 0 min 0 W/m 10,5 km/h (2 Bft) 95,74 %
17.12.2015 23:22 12,4 C 12,8 C 11,1 C 93 % 0 lf 1018,3 hPa 0,0 l/m 0 min 0 min 0 W/m 10,5 km/h (2 Bft) 91,49 %
17.12.2015 23:24 12,4 C 12,2 C 11,1 C 93 % 0 lf 1018,3 hPa 0,0 l/m 0 min 0 min 0 W/m 8,4 km/h (2 Bft) 95,74 %
17.12.2015 23:26 12,4 C 12,2 C 11,1 C 93 % 0 lf 1018,3 hPa 0,0 l/m 0 min 0 min 0 W/m 8,4 km/h (2 Bft) 93,62 %
17.12.2015 23:28 12,4 C 12,2 C 11,1 C 93 % 0 lf 1018,3 hPa 0,0 l/m 0 min 0 min 0 W/m 8,4 km/h (2 Bft) 95,74 %
17.12.2015 23:30 12,4 C 12,2 C 11,1 C 93 % 0 lf 1018,4 hPa 0,0 l/m 0 min 0 min 0 W/m 12,6 km/h (3 Bft) 91,30 %
17.12.2015 23:32 12,4 C 12,2 C 11,1 C 93 % 0 lf 1018,4 hPa 0,0 l/m 0 min 0 min 0 W/m 10,5 km/h (2 Bft) 95,74 %
17.12.2015 23:34 12,4 C 12,2 C 11,1 C 93 % 0 lf 1018,4 hPa 0,0 l/m 0 min 0 min 0 W/m 10,5 km/h (2 Bft) 100,00 %
17.12.2015 23:36 12,4 C 12,2 C 11,1 C 93 % 0 lf 1018,4 hPa 0,0 l/m 0 min 0 min 0 W/m 12,6 km/h (3 Bft) 95,74 %
17.12.2015 23:38 12,4 C 12,2 C 11,1 C 93 % 0 lf 1018,3 hPa 0,0 l/m 0 min 0 min 0 W/m 10,5 km/h (2 Bft) 95,74 %
17.12.2015 23:40 12,4 C 12,2 C 10,6 C 93 % 0 lf 1018,3 hPa 0,0 l/m 0 min 0 min 0 W/m 10,5 km/h (2 Bft) 95,65 %
17.12.2015 23:42 12,4 C 12,2 C 11,1 C 93 % 0 lf 1018,3 hPa 0,0 l/m 0 min 0 min 0 W/m 8,4 km/h (2 Bft) 95,74 %
17.12.2015 23:44 12,4 C 12,8 C 11,1 C 93 % 0 lf 1018,2 hPa 0,0 l/m 0 min 0 min 0 W/m 6,3 km/h (2 Bft) 91,49 %
17.12.2015 23:46 12,4 C 12,8 C 11,1 C 93 % 0 lf 1018,1 hPa 0,0 l/m 0 min 0 min 0 W/m 10,5 km/h (2 Bft) 95,74 %
17.12.2015 23:48 12,4 C 12,8 C 11,1 C 93 % 0 lf 1018,1 hPa 0,0 l/m 0 min 0 min 0 W/m 8,4 km/h (2 Bft) 95,74 %
17.12.2015 23:50 12,4 C 12,8 C 11,1 C 93 % 0 lf 1018,2 hPa 0,0 l/m 0 min 0 min 0 W/m 10,5 km/h (2 Bft) 97,87 %
17.12.2015 23:52 12,4 C 12,8 C 11,1 C 93 % 0 lf 1018,1 hPa 0,0 l/m 0 min 0 min 0 W/m 10,5 km/h (2 Bft) 97,83 %
17.12.2015 23:54 12,4 C 12,8 C 11,1 C 93 % 0 lf 1018,2 hPa 0,0 l/m 0 min 0 min 0 W/m 10,5 km/h (2 Bft) 97,87 %
17.12.2015 23:56 12,4 C 12,8 C 11,1 C 93 % 0 lf 1018,1 hPa 0,0 l/m 0 min 0 min 0 W/m 10,5 km/h (2 Bft) 95,74 %
17.12.2015 23:58 12,3 C 12,8 C 11,1 C 93 % 0 lf 1018,1 hPa 0,0 l/m 0 min 0 min 0 W/m 8,4 km/h (2 Bft) 95,74 %
_ Min-Zeit 00:08 00:00 21:58 14:28 02:46 23:46 - - - - 00:02 00:02
Minimum _ 12,3 C 12,2 C 10,0 C 80 % 0 lf 1018,1 hPa - - - - 6,3 km/h (2 Bft) 9,52 %
_ Max-Zeit 14:22 13:56 11:16 00:00 00:00 00:00 00:00 10:30 00:14 11:18 12:48 00:48
Maximum _ 16,0 C 20,6 C 13,9 C 99 % 15 lf 1023,4 hPa 0,0 l/m 2 min 2 min 224 W/m 29,3 km/h
SW (5 Bft)
100,00 %
Durchschnitt _ 13,7 C 14,0 C 11,7 C 91 % 2 lf 1021,1 hPa #0,0 l/m #2:34 h #36 min. 43 W/m 14,2 km/h (3 Bft) 95,92 %
© 2015 W. Hausmann